Observation data for Hackberry on 07/17/2019      Previous  Date  Next       Current Mesonet Observations  Soil Data  Daily Summary Page  Observations in Plain Language
KHA3 170500Z 16012KT 30/20 A2995 RMK A01 T02960196  RH  055%=      5-min Rain = 0
KHA3 170501Z 16012KT 30/20 A2995 RMK A01 T02960196  RH  055%=      5-min Rain = 0
KHA3 170502Z 15012KT 30/20 A2995 RMK A01 T02960196  RH  055%=      5-min Rain = 0
KHA3 170503Z 16012KT 30/20 A2995 RMK A01 T02970196  RH  055%=      5-min Rain = 0
KHA3 170504Z 15012KT 30/20 A2995 RMK A01 T02960196  RH  055%=      5-min Rain = 0
KHA3 170505Z 16012KT 30/20 A2995 RMK A01 T02960196  RH  055%=      5-min Rain = 0
KHA3 170506Z 16012KT 30/20 A2995 RMK A01 T02960196  RH  055%=      5-min Rain = 0
KHA3 170507Z 16012KT 30/20 A2995 RMK A01 T02960196  RH  055%=      5-min Rain = 0
KHA3 170508Z 16012KT 30/20 A2995 RMK A01 T02950196  RH  055%=      5-min Rain = 0
KHA3 170509Z 16010KT 29/20 A2995 RMK A01 T02940196  RH  056%=      5-min Rain = 0
KHA3 170510Z 16012KT 29/20 A2995 RMK A01 T02940197  RH  056%=      5-min Rain = 0
KHA3 170511Z 16012KT 29/20 A2995 RMK A01 T02930196  RH  056%=      5-min Rain = 0
KHA3 170512Z 16011KT 29/20 A2995 RMK A01 T02940196  RH  056%=      5-min Rain = 0
KHA3 170513Z 16012KT 29/20 A2995 RMK A01 T02930196  RH  056%=      5-min Rain = 0
KHA3 170514Z 16011KT 29/20 A2995 RMK A01 T02940197  RH  056%=      5-min Rain = 0
KHA3 170515Z 16012KT 29/20 A2995 RMK A01 T02930196  RH  056%=      5-min Rain = 0
KHA3 170516Z 15012KT 29/20 A2995 RMK A01 T02930196  RH  056%=      5-min Rain = 0
KHA3 170517Z 16013KT 29/20 A2995 RMK A01 T02930196  RH  056%=      5-min Rain = 0
KHA3 170518Z 16013KT 29/20 A2995 RMK A01 T02930196  RH  056%=      5-min Rain = 0
KHA3 170519Z 15012KT 29/20 A2995 RMK A01 T02940197  RH  056%=      5-min Rain = 0
KHA3 170520Z 16013KT 29/20 A2995 RMK A01 T02940197  RH  056%=      5-min Rain = 0
KHA3 170521Z 16013KT 29/20 A2995 RMK A01 T02940197  RH  056%=      5-min Rain = 0
KHA3 170522Z 16013KT 29/20 A2995 RMK A01 T02940197  RH  056%=      5-min Rain = 0
KHA3 170523Z 15014KT 29/20 A2994 RMK A01 T02930197  RH  056%=      5-min Rain = 0
KHA3 170524Z 16013KT 29/20 A2994 RMK A01 T02940196  RH  056%=      5-min Rain = 0
KHA3 170525Z 15011KT 29/20 A2994 RMK A01 T02940197  RH  056%=      5-min Rain = 0
KHA3 170526Z 15012KT 29/20 A2994 RMK A01 T02940197  RH  056%=      5-min Rain = 0
KHA3 170527Z 15013KT 29/20 A2994 RMK A01 T02930197  RH  056%=      5-min Rain = 0
KHA3 170528Z 16014KT 29/20 A2994 RMK A01 T02930197  RH  056%=      5-min Rain = 0
KHA3 170529Z 16013KT 29/20 A2994 RMK A01 T02930197  RH  056%=      5-min Rain = 0
KHA3 170530Z 15012KT 29/20 A2994 RMK A01 T02930197  RH  056%=      5-min Rain = 0
KHA3 170531Z 16013KT 29/20 A2994 RMK A01 T02930197  RH  056%=      5-min Rain = 0
KHA3 170532Z 16013KT 29/20 A2994 RMK A01 T02930197  RH  056%=      5-min Rain = 0
KHA3 170533Z 16012KT 29/20 A2994 RMK A01 T02930197  RH  056%=      5-min Rain = 0
KHA3 170534Z 16013KT 29/20 A2994 RMK A01 T02920197  RH  057%=      5-min Rain = 0
KHA3 170535Z 16013KT 29/20 A2994 RMK A01 T02920197  RH  057%=      5-min Rain = 0
KHA3 170536Z 16015KT 29/20 A2994 RMK A01 T02920197  RH  057%=      5-min Rain = 0
KHA3 170537Z 16013KT 29/20 A2994 RMK A01 T02920197  RH  057%=      5-min Rain = 0
KHA3 170538Z 16012KT 29/20 A2994 RMK A01 T02920197  RH  056%=      5-min Rain = 0
KHA3 170539Z 16012KT 29/20 A2994 RMK A01 T02930198  RH  057%=      5-min Rain = 0
KHA3 170540Z 16012KT 29/20 A2994 RMK A01 T02920198  RH  057%=      5-min Rain = 0
KHA3 170541Z 16012KT 29/20 A2994 RMK A01 T02910197  RH  057%=      5-min Rain = 0
KHA3 170542Z 16011KT 29/20 A2994 RMK A01 T02910198  RH  057%=      5-min Rain = 0
KHA3 170543Z 16013KT 29/20 A2994 RMK A01 T02910198  RH  057%=      5-min Rain = 0
KHA3 170544Z 16013KT 29/20 A2994 RMK A01 T02910197  RH  057%=      5-min Rain = 0
KHA3 170545Z 16013KT 29/20 A2994 RMK A01 T02910197  RH  057%=      5-min Rain = 0
KHA3 170546Z 16013KT 29/20 A2994 RMK A01 T02910198  RH  057%=      5-min Rain = 0
KHA3 170547Z 16014KT 29/20 A2994 RMK A01 T02910198  RH  057%=      5-min Rain = 0
KHA3 170548Z 16013KT 29/20 A2994 RMK A01 T02910198  RH  057%=      5-min Rain = 0
KHA3 170549Z 16013KT 29/20 A2994 RMK A01 T02910198  RH  057%=      5-min Rain = 0
KHA3 170550Z 16014KT 29/20 A2994 RMK A01 T02910198  RH  057%=      5-min Rain = 0
KHA3 170551Z 16011KT 29/20 A2994 RMK A01 T02910197  RH  057%=      5-min Rain = 0
KHA3 170552Z 16012KT 29/20 A2994 RMK A01 T02910198  RH  057%=      5-min Rain = 0
KHA3 170553Z 16012KT 29/20 A2994 RMK A01 T02900198  RH  057%=      5-min Rain = 0
KHA3 170554Z 16012KT 29/20 A2994 RMK A01 T02900198  RH  058%=      5-min Rain = 0
KHA3 170555Z 16012KT 29/20 A2994 RMK A01 T02900198  RH  058%=      5-min Rain = 0
KHA3 170556Z 16012KT 29/20 A2994 RMK A01 T02900198  RH  058%=      5-min Rain = 0
KHA3 170557Z 16013KT 29/20 A2994 RMK A01 T02890198  RH  058%=      5-min Rain = 0
KHA3 170558Z 16013KT 29/20 A2994 RMK A01 T02900198  RH  058%=      5-min Rain = 0
KHA3 170559Z 16013KT 29/20 A2995 RMK A01 T02900198  RH  057%=      5-min Rain = 0
KHA3 170600Z 16011KT 29/20 A2995 RMK A01 T02900198  RH  057%=      5-min Rain = 0
KHA3 170601Z 16011KT 29/20 A2995 RMK A01 T02900198  RH  058%=      5-min Rain = 0
KHA3 170602Z 17014KT 29/20 A2995 RMK A01 T02890198  RH  058%=      5-min Rain = 0
KHA3 170603Z 16012KT 29/20 A2995 RMK A01 T02900197  RH  057%=      5-min Rain = 0
KHA3 170604Z 16012KT 29/20 A2995 RMK A01 T02900198  RH  058%=      5-min Rain = 0
KHA3 170605Z 16013KT 29/20 A2995 RMK A01 T02900198  RH  058%=      5-min Rain = 0
KHA3 170606Z 16013KT 29/20 A2995 RMK A01 T02900198  RH  058%=      5-min Rain = 0
KHA3 170607Z 16011KT 29/20 A2995 RMK A01 T02890198  RH  058%=      5-min Rain = 0
KHA3 170608Z 16012KT 29/20 A2995 RMK A01 T02890198  RH  058%=      5-min Rain = 0
KHA3 170609Z 16012KT 29/20 A2995 RMK A01 T02880198  RH  058%=      5-min Rain = 0
KHA3 170610Z 16012KT 29/20 A2995 RMK A01 T02870198  RH  058%=      5-min Rain = 0
KHA3 170611Z 16013KT 29/20 A2995 RMK A01 T02870198  RH  058%=      5-min Rain = 0
KHA3 170612Z 16012KT 29/20 A2995 RMK A01 T02870197  RH  058%=      5-min Rain = 0
KHA3 170613Z 16014KT 29/20 A2995 RMK A01 T02880198  RH  058%=      5-min Rain = 0
KHA3 170614Z 16012KT 29/20 A2995 RMK A01 T02880198  RH  058%=      5-min Rain = 0
KHA3 170615Z 16012KT 29/20 A2995 RMK A01 T02870198  RH  058%=      5-min Rain = 0
KHA3 170616Z 16012KT 29/20 A2995 RMK A01 T02870198  RH  058%=      5-min Rain = 0
KHA3 170617Z 17011KT 29/20 A2995 RMK A01 T02870198  RH  059%=      5-min Rain = 0
KHA3 170618Z 16012KT 29/20 A2995 RMK A01 T02860198  RH  059%=      5-min Rain = 0
KHA3 170619Z 16010KT 29/20 A2995 RMK A01 T02860198  RH  059%=      5-min Rain = 0
KHA3 170620Z 16011KT 29/20 A2995 RMK A01 T02860199  RH  059%=      5-min Rain = 0
KHA3 170621Z 16013KT 29/20 A2995 RMK A01 T02850198  RH  059%=      5-min Rain = 0
KHA3 170622Z 16012KT 28/20 A2995 RMK A01 T02840197  RH  059%=      5-min Rain = 0
KHA3 170623Z 16011KT 29/20 A2995 RMK A01 T02850198  RH  059%=      5-min Rain = 0
KHA3 170624Z 16011KT 29/20 A2995 RMK A01 T02850198  RH  059%=      5-min Rain = 0
KHA3 170625Z 16011KT 28/20 A2995 RMK A01 T02840198  RH  060%=      5-min Rain = 0
KHA3 170626Z 16011KT 28/20 A2995 RMK A01 T02830198  RH  060%=      5-min Rain = 0
KHA3 170627Z 17011KT 28/20 A2995 RMK A01 T02830198  RH  060%=      5-min Rain = 0
KHA3 170628Z 16012KT 28/20 A2995 RMK A01 T02830198  RH  060%=      5-min Rain = 0
KHA3 170629Z 17011KT 28/20 A2995 RMK A01 T02830198  RH  060%=      5-min Rain = 0
KHA3 170630Z 17011KT 28/20 A2995 RMK A01 T02820198  RH  060%=      5-min Rain = 0
KHA3 170631Z 17010KT 28/20 A2995 RMK A01 T02820198  RH  060%=      5-min Rain = 0
KHA3 170632Z 17010KT 28/20 A2995 RMK A01 T02810198  RH  061%=      5-min Rain = 0
KHA3 170633Z 17011KT 28/20 A2995 RMK A01 T02800198  RH  061%=      5-min Rain = 0
KHA3 170634Z 17012KT 28/20 A2995 RMK A01 T02800198  RH  061%=      5-min Rain = 0
KHA3 170635Z 17011KT 28/20 A2995 RMK A01 T02800198  RH  061%=      5-min Rain = 0
KHA3 170636Z 17012KT 28/20 A2995 RMK A01 T02800198  RH  061%=      5-min Rain = 0
KHA3 170637Z 17011KT 28/20 A2995 RMK A01 T02800198  RH  061%=      5-min Rain = 0
KHA3 170638Z 17011KT 28/20 A2995 RMK A01 T02790198  RH  061%=      5-min Rain = 0
KHA3 170639Z 17012KT 28/20 A2995 RMK A01 T02790198  RH  061%=      5-min Rain = 0
KHA3 170640Z 17012KT 28/20 A2995 RMK A01 T02790198  RH  061%=      5-min Rain = 0
KHA3 170641Z 16011KT 28/20 A2995 RMK A01 T02790198  RH  061%=      5-min Rain = 0
KHA3 170642Z 17011KT 28/20 A2995 RMK A01 T02790198  RH  062%=      5-min Rain = 0
KHA3 170643Z 17012KT 28/20 A2995 RMK A01 T02780198  RH  061%=      5-min Rain = 0
KHA3 170644Z 17011KT 28/20 A2994 RMK A01 T02790198  RH  062%=      5-min Rain = 0
KHA3 170645Z 17012KT 28/20 A2994 RMK A01 T02780198  RH  062%=      5-min Rain = 0
KHA3 170646Z 17013KT 28/20 A2994 RMK A01 T02780198  RH  062%=      5-min Rain = 0
KHA3 170647Z 17011KT 28/20 A2994 RMK A01 T02780198  RH  062%=      5-min Rain = 0
KHA3 170648Z 17012KT 28/20 A2994 RMK A01 T02780198  RH  062%=      5-min Rain = 0
KHA3 170649Z 17012KT 28/20 A2994 RMK A01 T02770198  RH  062%=      5-min Rain = 0
KHA3 170650Z 17012KT 28/20 A2994 RMK A01 T02770197  RH  062%=      5-min Rain = 0
KHA3 170651Z 17011KT 28/20 A2994 RMK A01 T02770197  RH  062%=      5-min Rain = 0
KHA3 170652Z 17012KT 28/20 A2994 RMK A01 T02770198  RH  062%=      5-min Rain = 0
KHA3 170653Z 17013KT 28/20 A2994 RMK A01 T02770198  RH  062%=      5-min Rain = 0
KHA3 170654Z 17011KT 28/20 A2994 RMK A01 T02760197  RH  062%=      5-min Rain = 0
KHA3 170655Z 16011KT 28/20 A2994 RMK A01 T02760198  RH  062%=      5-min Rain = 0
KHA3 170656Z 17013KT 28/20 A2994 RMK A01 T02760197  RH  062%=      5-min Rain = 0
KHA3 170657Z 17011KT 28/20 A2994 RMK A01 T02760197  RH  062%=      5-min Rain = 0
KHA3 170658Z 17012KT 28/20 A2994 RMK A01 T02760198  RH  062%=      5-min Rain = 0
KHA3 170659Z 17012KT 28/20 A2994 RMK A01 T02760198  RH  062%=      5-min Rain = 0
KHA3 170700Z 17012KT 28/20 A2994 RMK A01 T02750197  RH  062%=      5-min Rain = 0
KHA3 170701Z 17011KT 28/20 A2994 RMK A01 T02750197  RH  062%=      5-min Rain = 0
KHA3 170702Z 17012KT 28/20 A2994 RMK A01 T02760197  RH  062%=      5-min Rain = 0
KHA3 170703Z 17010KT 28/20 A2994 RMK A01 T02760197  RH  062%=      5-min Rain = 0
KHA3 170704Z 17011KT 28/20 A2994 RMK A01 T02750198  RH  063%=      5-min Rain = 0
KHA3 170705Z 17012KT 28/20 A2994 RMK A01 T02750197  RH  063%=      5-min Rain = 0
KHA3 170706Z 17011KT 28/20 A2994 RMK A01 T02750197  RH  063%=      5-min Rain = 0
KHA3 170707Z 17011KT 28/20 A2994 RMK A01 T02750197  RH  063%=      5-min Rain = 0
KHA3 170708Z 17011KT 27/20 A2994 RMK A01 T02740197  RH  063%=      5-min Rain = 0
KHA3 170709Z 17011KT 27/20 A2994 RMK A01 T02740197  RH  063%=      5-min Rain = 0
KHA3 170710Z 17012KT 27/20 A2994 RMK A01 T02740197  RH  063%=      5-min Rain = 0
KHA3 170711Z 17011KT 27/20 A2994 RMK A01 T02740197  RH  063%=      5-min Rain = 0
KHA3 170712Z 17011KT 27/20 A2994 RMK A01 T02730197  RH  063%=      5-min Rain = 0
KHA3 170713Z 17011KT 27/20 A2994 RMK A01 T02720197  RH  063%=      5-min Rain = 0
KHA3 170714Z 17011KT 27/20 A2994 RMK A01 T02720197  RH  064%=      5-min Rain = 0
KHA3 170715Z 17012KT 27/20 A2994 RMK A01 T02720197  RH  064%=      5-min Rain = 0
KHA3 170716Z 17012KT 27/20 A2994 RMK A01 T02720197  RH  064%=      5-min Rain = 0
KHA3 170717Z 17012KT 27/20 A2994 RMK A01 T02720197  RH  064%=      5-min Rain = 0
KHA3 170718Z 17012KT 27/20 A2994 RMK A01 T02720197  RH  063%=      5-min Rain = 0
KHA3 170719Z 17012KT 27/20 A2993 RMK A01 T02720196  RH  063%=      5-min Rain = 0
KHA3 170720Z 17012KT 27/20 A2993 RMK A01 T02720197  RH  064%=      5-min Rain = 0
KHA3 170721Z 17011KT 27/20 A2994 RMK A01 T02720197  RH  064%=      5-min Rain = 0
KHA3 170722Z 17012KT 27/20 A2993 RMK A01 T02720197  RH  064%=      5-min Rain = 0
KHA3 170723Z 18012KT 27/20 A2994 RMK A01 T02720197  RH  063%=      5-min Rain = 0
KHA3 170724Z 18011KT 27/20 A2994 RMK A01 T02720197  RH  063%=      5-min Rain = 0
KHA3 170725Z 18012KT 27/20 A2993 RMK A01 T02720197  RH  063%=      5-min Rain = 0
KHA3 170726Z 18012KT 27/20 A2994 RMK A01 T02720197  RH  063%=      5-min Rain = 0
KHA3 170727Z 18011KT 27/20 A2993 RMK A01 T02720196  RH  063%=      5-min Rain = 0
KHA3 170728Z 18011KT 27/20 A2994 RMK A01 T02720196  RH  063%=      5-min Rain = 0
KHA3 170729Z 18012KT 27/20 A2994 RMK A01 T02720196  RH  063%=      5-min Rain = 0
KHA3 170730Z 18013KT 27/20 A2994 RMK A01 T02720196  RH  063%=      5-min Rain = 0
KHA3 170731Z 18012KT 27/20 A2994 RMK A01 T02730196  RH  063%=      5-min Rain = 0
KHA3 170732Z 18012KT 27/20 A2994 RMK A01 T02730195  RH  062%=      5-min Rain = 0
KHA3 170733Z 18011KT 27/20 A2994 RMK A01 T02730196  RH  063%=      5-min Rain = 0
KHA3 170734Z 18011KT 27/20 A2994 RMK A01 T02730196  RH  063%=      5-min Rain = 0
KHA3 170735Z 18012KT 27/20 A2994 RMK A01 T02730196  RH  063%=      5-min Rain = 0
KHA3 170736Z 18012KT 27/20 A2994 RMK A01 T02730196  RH  063%=      5-min Rain = 0
KHA3 170737Z 18013KT 27/20 A2994 RMK A01 T02730196  RH  063%=      5-min Rain = 0
KHA3 170738Z 18013KT 27/20 A2993 RMK A01 T02730195  RH  063%=      5-min Rain = 0
KHA3 170739Z 18013KT 27/20 A2993 RMK A01 T02730195  RH  062%=      5-min Rain = 0
KHA3 170740Z 18013KT 27/20 A2993 RMK A01 T02740195  RH  062%=      5-min Rain = 0
KHA3 170741Z 17012KT 27/20 A2993 RMK A01 T02740196  RH  062%=      5-min Rain = 0
KHA3 170742Z 17013KT 27/20 A2993 RMK A01 T02730195  RH  062%=      5-min Rain = 0
KHA3 170743Z 18014KT 27/20 A2993 RMK A01 T02740195  RH  062%=      5-min Rain = 0
KHA3 170744Z 17012KT 27/20 A2993 RMK A01 T02730195  RH  062%=      5-min Rain = 0
KHA3 170745Z 18013KT 27/20 A2993 RMK A01 T02730195  RH  062%=      5-min Rain = 0
KHA3 170746Z 18014KT 27/20 A2993 RMK A01 T02730195  RH  062%=      5-min Rain = 0
KHA3 170747Z 18014KT 27/20 A2993 RMK A01 T02730195  RH  062%=      5-min Rain = 0
KHA3 170748Z 18013KT 27/20 A2993 RMK A01 T02730195  RH  062%=      5-min Rain = 0
KHA3 170749Z 18013KT 27/20 A2993 RMK A01 T02730195  RH  062%=      5-min Rain = 0
KHA3 170750Z 18013KT 27/20 A2993 RMK A01 T02730195  RH  062%=      5-min Rain = 0
KHA3 170751Z 18013KT 27/20 A2993 RMK A01 T02730195  RH  062%=      5-min Rain = 0
KHA3 170752Z 18014KT 27/19 A2993 RMK A01 T02730194  RH  062%=      5-min Rain = 0
KHA3 170753Z 18013KT 27/19 A2993 RMK A01 T02730194  RH  062%=      5-min Rain = 0
KHA3 170754Z 18013KT 27/20 A2993 RMK A01 T02740195  RH  062%=      5-min Rain = 0
KHA3 170755Z 18013KT 27/19 A2993 RMK A01 T02730194  RH  062%=      5-min Rain = 0
KHA3 170756Z 18013KT 27/20 A2993 RMK A01 T02730195  RH  062%=      5-min Rain = 0
KHA3 170757Z 18013KT 27/19 A2993 RMK A01 T02730194  RH  062%=      5-min Rain = 0
KHA3 170758Z 18013KT 27/19 A2993 RMK A01 T02730194  RH  062%=      5-min Rain = 0
KHA3 170759Z 18013KT 27/19 A2993 RMK A01 T02720194  RH  062%=      5-min Rain = 0
KHA3 170800Z 18013KT 27/19 A2993 RMK A01 T02730194  RH  062%=      5-min Rain = 0
KHA3 170801Z 18013KT 27/19 A2993 RMK A01 T02720194  RH  062%=      5-min Rain = 0
KHA3 170802Z 18014KT 27/19 A2993 RMK A01 T02730194  RH  062%=      5-min Rain = 0
KHA3 170803Z 18013KT 27/19 A2993 RMK A01 T02720194  RH  062%=      5-min Rain = 0
KHA3 170804Z 18012KT 27/19 A2993 RMK A01 T02720194  RH  062%=      5-min Rain = 0
KHA3 170805Z 18012KT 27/19 A2993 RMK A01 T02720194  RH  062%=      5-min Rain = 0
KHA3 170806Z 18013KT 27/19 A2993 RMK A01 T02720194  RH  063%=      5-min Rain = 0
KHA3 170807Z 18012KT 27/19 A2993 RMK A01 T02720194  RH  062%=      5-min Rain = 0
KHA3 170808Z 18013KT 27/19 A2993 RMK A01 T02720194  RH  063%=      5-min Rain = 0
KHA3 170809Z 18011KT 27/19 A2993 RMK A01 T02720194  RH  062%=      5-min Rain = 0
KHA3 170810Z 18013KT 27/19 A2993 RMK A01 T02710194  RH  063%=      5-min Rain = 0
KHA3 170811Z 18012KT 27/19 A2993 RMK A01 T02710194  RH  063%=      5-min Rain = 0
KHA3 170812Z 18012KT 27/19 A2993 RMK A01 T02710194  RH  063%=      5-min Rain = 0
KHA3 170813Z 18013KT 27/19 A2993 RMK A01 T02700194  RH  063%=      5-min Rain = 0
KHA3 170814Z 18013KT 27/19 A2993 RMK A01 T02700194  RH  063%=      5-min Rain = 0
KHA3 170815Z 18011KT 27/19 A2993 RMK A01 T02700193  RH  063%=      5-min Rain = 0
KHA3 170816Z 18012KT 27/19 A2993 RMK A01 T02700194  RH  063%=      5-min Rain = 0
KHA3 170817Z 18012KT 27/19 A2993 RMK A01 T02690194  RH  063%=      5-min Rain = 0
KHA3 170818Z 18012KT 27/19 A2993 RMK A01 T02690193  RH  063%=      5-min Rain = 0
KHA3 170819Z 19012KT 27/19 A2993 RMK A01 T02700193  RH  063%=      5-min Rain = 0
KHA3 170820Z 18012KT 27/19 A2993 RMK A01 T02700193  RH  063%=      5-min Rain = 0
KHA3 170821Z 18012KT 27/19 A2993 RMK A01 T02700194  RH  063%=      5-min Rain = 0
KHA3 170822Z 18012KT 27/19 A2993 RMK A01 T02690193  RH  063%=      5-min Rain = 0
KHA3 170823Z 18011KT 27/19 A2993 RMK A01 T02690193  RH  063%=      5-min Rain = 0
KHA3 170824Z 18012KT 27/19 A2993 RMK A01 T02680193  RH  063%=      5-min Rain = 0
KHA3 170825Z 18012KT 27/19 A2993 RMK A01 T02680193  RH  063%=      5-min Rain = 0
KHA3 170826Z 18012KT 27/19 A2993 RMK A01 T02690193  RH  063%=      5-min Rain = 0
KHA3 170827Z 18012KT 27/19 A2993 RMK A01 T02690193  RH  063%=      5-min Rain = 0
KHA3 170828Z 18012KT 27/19 A2993 RMK A01 T02690193  RH  063%=      5-min Rain = 0
KHA3 170829Z 18012KT 27/19 A2993 RMK A01 T02690193  RH  063%=      5-min Rain = 0
KHA3 170830Z 18012KT 27/19 A2993 RMK A01 T02690192  RH  063%=      5-min Rain = 0
KHA3 170831Z 18012KT 27/19 A2993 RMK A01 T02690193  RH  063%=      5-min Rain = 0
KHA3 170832Z 18012KT 27/19 A2993 RMK A01 T02690193  RH  063%=      5-min Rain = 0
KHA3 170833Z 18012KT 27/19 A2993 RMK A01 T02690193  RH  063%=      5-min Rain = 0
KHA3 170834Z 18012KT 27/19 A2993 RMK A01 T02690193  RH  063%=      5-min Rain = 0
KHA3 170835Z 18012KT 27/19 A2993 RMK A01 T02690193  RH  063%=      5-min Rain = 0
KHA3 170836Z 19013KT 27/19 A2993 RMK A01 T02690193  RH  063%=      5-min Rain = 0
KHA3 170837Z 18013KT 27/19 A2993 RMK A01 T02690193  RH  063%=      5-min Rain = 0
KHA3 170838Z 18013KT 27/19 A2993 RMK A01 T02690192  RH  063%=      5-min Rain = 0
KHA3 170839Z 19012KT 27/19 A2993 RMK A01 T02690192  RH  063%=      5-min Rain = 0
KHA3 170840Z 18012KT 27/19 A2993 RMK A01 T02690192  RH  063%=      5-min Rain = 0
KHA3 170841Z 18012KT 27/19 A2993 RMK A01 T02690192  RH  063%=      5-min Rain = 0
KHA3 170842Z 18012KT 27/19 A2993 RMK A01 T02690192  RH  063%=      5-min Rain = 0
KHA3 170843Z 18012KT 27/19 A2993 RMK A01 T02690193  RH  063%=      5-min Rain = 0
KHA3 170844Z 19012KT 27/19 A2993 RMK A01 T02680192  RH  063%=      5-min Rain = 0
KHA3 170845Z 18012KT 27/19 A2993 RMK A01 T02680192  RH  063%=      5-min Rain = 0
KHA3 170846Z 19012KT 27/19 A2993 RMK A01 T02680193  RH  063%=      5-min Rain = 0
KHA3 170847Z 19012KT 27/19 A2993 RMK A01 T02680192  RH  063%=      5-min Rain = 0
KHA3 170848Z 18012KT 27/19 A2993 RMK A01 T02680193  RH  063%=      5-min Rain = 0
KHA3 170849Z 18013KT 27/19 A2993 RMK A01 T02680192  RH  063%=      5-min Rain = 0
KHA3 170850Z 19013KT 27/19 A2993 RMK A01 T02680192  RH  063%=      5-min Rain = 0
KHA3 170851Z 19013KT 27/19 A2993 RMK A01 T02680192  RH  063%=      5-min Rain = 0
KHA3 170852Z 19012KT 27/19 A2993 RMK A01 T02690192  RH  063%=      5-min Rain = 0
KHA3 170853Z 18013KT 27/19 A2993 RMK A01 T02690192  RH  063%=      5-min Rain = 0
KHA3 170854Z 18012KT 27/19 A2993 RMK A01 T02690192  RH  063%=      5-min Rain = 0
KHA3 170855Z 18012KT 27/19 A2993 RMK A01 T02690192  RH  063%=      5-min Rain = 0
KHA3 170856Z 18013KT 27/19 A2993 RMK A01 T02690192  RH  063%=      5-min Rain = 0
KHA3 170857Z 18013KT 27/19 A2993 RMK A01 T02680192  RH  063%=      5-min Rain = 0
KHA3 170858Z 19013KT 27/19 A2993 RMK A01 T02680192  RH  063%=      5-min Rain = 0
KHA3 170859Z 18012KT 27/19 A2993 RMK A01 T02680192  RH  063%=      5-min Rain = 0
KHA3 170900Z 19014KT 27/19 A2993 RMK A01 T02680192  RH  063%=      5-min Rain = 0
KHA3 170901Z 18013KT 27/19 A2993 RMK A01 T02680192  RH  063%=      5-min Rain = 0
KHA3 170902Z 19013KT 27/19 A2993 RMK A01 T02680192  RH  063%=      5-min Rain = 0
KHA3 170903Z 19013KT 27/19 A2993 RMK A01 T02680192  RH  063%=      5-min Rain = 0
KHA3 170904Z 19014KT 27/19 A2993 RMK A01 T02680192  RH  063%=      5-min Rain = 0
KHA3 170905Z 19014KT 27/19 A2993 RMK A01 T02680192  RH  063%=      5-min Rain = 0
KHA3 170906Z 19014KT 27/19 A2993 RMK A01 T02680192  RH  063%=      5-min Rain = 0
KHA3 170907Z 19013KT 27/19 A2993 RMK A01 T02680192  RH  063%=      5-min Rain = 0
KHA3 170908Z 19013KT 27/19 A2993 RMK A01 T02680192  RH  063%=      5-min Rain = 0
KHA3 170909Z 19013KT 27/19 A2993 RMK A01 T02680192  RH  063%=      5-min Rain = 0
KHA3 170910Z 18012KT 27/19 A2993 RMK A01 T02670192  RH  063%=      5-min Rain = 0
KHA3 170911Z 19013KT 27/19 A2993 RMK A01 T02680192  RH  063%=      5-min Rain = 0
KHA3 170912Z 19012KT 27/19 A2993 RMK A01 T02670192  RH  063%=      5-min Rain = 0
KHA3 170913Z 19013KT 27/19 A2993 RMK A01 T02670192  RH  063%=      5-min Rain = 0
KHA3 170914Z 19012KT 27/19 A2993 RMK A01 T02670192  RH  064%=      5-min Rain = 0
KHA3 170915Z 19014KT 27/19 A2993 RMK A01 T02670192  RH  064%=      5-min Rain = 0
KHA3 170916Z 19013KT 27/19 A2993 RMK A01 T02660191  RH  063%=      5-min Rain = 0
KHA3 170917Z 19012KT 27/19 A2993 RMK A01 T02670192  RH  063%=      5-min Rain = 0
KHA3 170918Z 19013KT 27/19 A2993 RMK A01 T02670192  RH  063%=      5-min Rain = 0
KHA3 170919Z 19013KT 27/19 A2993 RMK A01 T02670192  RH  063%=      5-min Rain = 0
KHA3 170920Z 19012KT 27/19 A2993 RMK A01 T02670192  RH  063%=      5-min Rain = 0
KHA3 170921Z 19012KT 27/19 A2993 RMK A01 T02670192  RH  063%=      5-min Rain = 0
KHA3 170922Z 19013KT 27/19 A2993 RMK A01 T02660191  RH  063%=      5-min Rain = 0
KHA3 170923Z 19013KT 27/19 A2993 RMK A01 T02670191  RH  063%=      5-min Rain = 0
KHA3 170924Z 19013KT 27/19 A2993 RMK A01 T02670191  RH  063%=      5-min Rain = 0
KHA3 170925Z 19013KT 27/19 A2993 RMK A01 T02670192  RH  063%=      5-min Rain = 0
KHA3 170926Z 19013KT 27/19 A2993 RMK A01 T02670192  RH  063%=      5-min Rain = 0
KHA3 170927Z 19013KT 27/19 A2993 RMK A01 T02670191  RH  063%=      5-min Rain = 0
KHA3 170928Z 19012KT 27/19 A2993 RMK A01 T02670191  RH  063%=      5-min Rain = 0
KHA3 170929Z 19013KT 27/19 A2993 RMK A01 T02670191  RH  063%=      5-min Rain = 0
KHA3 170930Z 19012KT 27/19 A2993 RMK A01 T02680192  RH  063%=      5-min Rain = 0
KHA3 170931Z 19014KT 27/19 A2993 RMK A01 T02680191  RH  063%=      5-min Rain = 0
KHA3 170932Z 19013KT 27/19 A2993 RMK A01 T02680192  RH  063%=      5-min Rain = 0
KHA3 170933Z 19013KT 27/19 A2993 RMK A01 T02680192  RH  063%=      5-min Rain = 0
KHA3 170934Z 19012KT 27/19 A2993 RMK A01 T02680192  RH  063%=      5-min Rain = 0
KHA3 170935Z 19012KT 27/19 A2993 RMK A01 T02670192  RH  063%=      5-min Rain = 0
KHA3 170936Z 19013KT 27/19 A2993 RMK A01 T02670192  RH  063%=      5-min Rain = 0
KHA3 170937Z 19013KT 27/19 A2994 RMK A01 T02670191  RH  063%=      5-min Rain = 0
KHA3 170938Z 19013KT 27/19 A2994 RMK A01 T02670191  RH  063%=      5-min Rain = 0
KHA3 170939Z 20013KT 27/19 A2994 RMK A01 T02680191  RH  063%=      5-min Rain = 0
KHA3 170940Z 19012KT 27/19 A2994 RMK A01 T02680191  RH  063%=      5-min Rain = 0
KHA3 170941Z 19012KT 27/19 A2994 RMK A01 T02680192  RH  063%=      5-min Rain = 0
KHA3 170942Z 19014KT 27/19 A2994 RMK A01 T02680191  RH  063%=      5-min Rain = 0
KHA3 170943Z 19012KT 27/19 A2994 RMK A01 T02680191  RH  063%=      5-min Rain = 0
KHA3 170944Z 20013KT 27/19 A2994 RMK A01 T02680191  RH  063%=      5-min Rain = 0
KHA3 170945Z 20013KT 27/19 A2994 RMK A01 T02680192  RH  063%=      5-min Rain = 0
KHA3 170946Z 20012KT 27/19 A2994 RMK A01 T02680192  RH  063%=      5-min Rain = 0
KHA3 170947Z 20012KT 27/19 A2994 RMK A01 T02670191  RH  063%=      5-min Rain = 0
KHA3 170948Z 19013KT 27/19 A2994 RMK A01 T02670192  RH  063%=      5-min Rain = 0
KHA3 170949Z 19012KT 27/19 A2994 RMK A01 T02670192  RH  063%=      5-min Rain = 0
KHA3 170950Z 19014KT 27/19 A2994 RMK A01 T02670191  RH  063%=      5-min Rain = 0
KHA3 170951Z 19013KT 27/19 A2994 RMK A01 T02680192  RH  063%=      5-min Rain = 0
KHA3 170952Z 19014KT 27/19 A2994 RMK A01 T02680192  RH  063%=      5-min Rain = 0
KHA3 170953Z 19016KT 27/19 A2994 RMK A01 T02680192  RH  063%=      5-min Rain = 0
KHA3 170954Z 19014KT 27/19 A2994 RMK A01 T02680192  RH  063%=      5-min Rain = 0
KHA3 170955Z 19013KT 27/19 A2994 RMK A01 T02690191  RH  063%=      5-min Rain = 0
KHA3 170956Z 19015KT 27/19 A2994 RMK A01 T02690192  RH  063%=      5-min Rain = 0
KHA3 170957Z 19015KT 27/19 A2994 RMK A01 T02690192  RH  063%=      5-min Rain = 0
KHA3 170958Z 19014KT 27/19 A2994 RMK A01 T02690192  RH  063%=      5-min Rain = 0
KHA3 170959Z 19014KT 27/19 A2994 RMK A01 T02690192  RH  063%=      5-min Rain = 0
KHA3 171000Z 19014KT 27/19 A2994 RMK A01 T02680192  RH  063%=      5-min Rain = 0
KHA3 171001Z 19014KT 27/19 A2994 RMK A01 T02680192  RH  063%=      5-min Rain = 0
KHA3 171002Z 19017KT 27/19 A2994 RMK A01 T02680192  RH  063%=      5-min Rain = 0
KHA3 171003Z 19014KT 27/19 A2994 RMK A01 T02680192  RH  063%=      5-min Rain = 0
KHA3 171004Z 19014KT 27/19 A2994 RMK A01 T02680192  RH  063%=      5-min Rain = 0
KHA3 171005Z 19015KT 27/19 A2994 RMK A01 T02680192  RH  063%=      5-min Rain = 0
KHA3 171006Z 19013KT 27/19 A2994 RMK A01 T02680192  RH  063%=      5-min Rain = 0
KHA3 171007Z 19015KT 27/19 A2994 RMK A01 T02680193  RH  063%=      5-min Rain = 0
KHA3 171008Z 19015KT 27/19 A2994 RMK A01 T02670192  RH  063%=      5-min Rain = 0
KHA3 171009Z 19014KT 27/19 A2994 RMK A01 T02670192  RH  064%=      5-min Rain = 0
KHA3 171010Z 19015KT 27/19 A2994 RMK A01 T02670193  RH  064%=      5-min Rain = 0
KHA3 171011Z 18014KT 27/19 A2994 RMK A01 T02670193  RH  064%=      5-min Rain = 0
KHA3 171012Z 19015KT 27/19 A2994 RMK A01 T02670193  RH  064%=      5-min Rain = 0
KHA3 171013Z 18015KT 27/19 A2994 RMK A01 T02670193  RH  064%=      5-min Rain = 0
KHA3 171014Z 18016KT 27/19 A2994 RMK A01 T02670193  RH  064%=      5-min Rain = 0
KHA3 171015Z 19016KT 27/19 A2994 RMK A01 T02670193  RH  064%=      5-min Rain = 0
KHA3 171016Z 18016KT 27/19 A2994 RMK A01 T02670193  RH  064%=      5-min Rain = 0
KHA3 171017Z 18016KT 27/19 A2994 RMK A01 T02670193  RH  064%=      5-min Rain = 0
KHA3 171018Z 18014KT 27/19 A2994 RMK A01 T02670193  RH  064%=      5-min Rain = 0
KHA3 171019Z 18014KT 27/19 A2994 RMK A01 T02660193  RH  064%=      5-min Rain = 0
KHA3 171020Z 19014KT 27/19 A2994 RMK A01 T02660193  RH  064%=      5-min Rain = 0
KHA3 171021Z 18015KT 27/19 A2994 RMK A01 T02660194  RH  065%=      5-min Rain = 0
KHA3 171022Z 19014KT 27/19 A2994 RMK A01 T02650193  RH  065%=      5-min Rain = 0
KHA3 171023Z 18015KT 27/19 A2994 RMK A01 T02650194  RH  065%=      5-min Rain = 0
KHA3 171024Z 18014G19KT 27/19 A2994 RMK A01 T02650194  RH  065%=      5-min Rain = 0
KHA3 171025Z 18015KT 27/19 A2994 RMK A01 T02650193  RH  065%=      5-min Rain = 0
KHA3 171026Z 18014KT 27/19 A2994 RMK A01 T02650194  RH  065%=      5-min Rain = 0
KHA3 171027Z 19015KT 26/19 A2994 RMK A01 T02640193  RH  065%=      5-min Rain = 0
KHA3 171028Z 18015KT 26/19 A2994 RMK A01 T02640193  RH  065%=      5-min Rain = 0
KHA3 171029Z 19014KT 26/19 A2994 RMK A01 T02640193  RH  065%=      5-min Rain = 0
KHA3 171030Z 18016KT 26/19 A2994 RMK A01 T02640194  RH  065%=      5-min Rain = 0
KHA3 171031Z 18014KT 26/19 A2994 RMK A01 T02640193  RH  065%=      5-min Rain = 0
KHA3 171032Z 18015KT 26/19 A2994 RMK A01 T02640193  RH  065%=      5-min Rain = 0
KHA3 171033Z 18015KT 26/19 A2994 RMK A01 T02640194  RH  065%=      5-min Rain = 0
KHA3 171034Z 18015KT 26/19 A2994 RMK A01 T02640194  RH  065%=      5-min Rain = 0
KHA3 171035Z 19014KT 26/19 A2994 RMK A01 T02640194  RH  065%=      5-min Rain = 0
KHA3 171036Z 18013KT 26/19 A2994 RMK A01 T02640194  RH  065%=      5-min Rain = 0
KHA3 171037Z 18015KT 26/19 A2994 RMK A01 T02630194  RH  066%=      5-min Rain = 0
KHA3 171038Z 19014KT 26/19 A2994 RMK A01 T02630194  RH  066%=      5-min Rain = 0
KHA3 171039Z 18014KT 26/19 A2994 RMK A01 T02630194  RH  066%=      5-min Rain = 0
KHA3 171040Z 19013KT 26/19 A2994 RMK A01 T02630194  RH  066%=      5-min Rain = 0
KHA3 171041Z 18015KT 26/20 A2994 RMK A01 T02620195  RH  066%=      5-min Rain = 0
KHA3 171042Z 19014KT 26/19 A2995 RMK A01 T02620194  RH  066%=      5-min Rain = 0
KHA3 171043Z 18014KT 26/19 A2995 RMK A01 T02620194  RH  066%=      5-min Rain = 0
KHA3 171044Z 18014KT 26/19 A2995 RMK A01 T02620194  RH  066%=      5-min Rain = 0
KHA3 171045Z 18014KT 26/20 A2995 RMK A01 T02620195  RH  066%=      5-min Rain = 0
KHA3 171046Z 18013KT 26/20 A2995 RMK A01 T02620195  RH  066%=      5-min Rain = 0
KHA3 171047Z 18015KT 26/20 A2995 RMK A01 T02620195  RH  067%=      5-min Rain = 0
KHA3 171048Z 18014KT 26/20 A2995 RMK A01 T02620195  RH  067%=      5-min Rain = 0
KHA3 171049Z 18014KT 26/20 A2995 RMK A01 T02620195  RH  067%=      5-min Rain = 0
KHA3 171050Z 18014KT 26/20 A2995 RMK A01 T02620195  RH  067%=      5-min Rain = 0
KHA3 171051Z 18015KT 26/20 A2995 RMK A01 T02620195  RH  067%=      5-min Rain = 0
KHA3 171052Z 18014KT 26/20 A2995 RMK A01 T02620195  RH  067%=      5-min Rain = 0
KHA3 171053Z 18014KT 26/20 A2995 RMK A01 T02620195  RH  067%=      5-min Rain = 0
KHA3 171054Z 18014KT 26/20 A2995 RMK A01 T02620195  RH  067%=      5-min Rain = 0
KHA3 171055Z 18014KT 26/20 A2995 RMK A01 T02620195  RH  067%=      5-min Rain = 0
KHA3 171056Z 18013KT 26/20 A2995 RMK A01 T02610196  RH  067%=      5-min Rain = 0
KHA3 171057Z 18014KT 26/20 A2995 RMK A01 T02610196  RH  067%=      5-min Rain = 0
KHA3 171058Z 18014KT 26/20 A2995 RMK A01 T02610196  RH  067%=      5-min Rain = 0
KHA3 171059Z 18014KT 26/20 A2995 RMK A01 T02610196  RH  067%=      5-min Rain = 0
KHA3 171100Z 18014KT 26/20 A2995 RMK A01 T02610196  RH  068%=      5-min Rain = 0
KHA3 171101Z 18014KT 26/20 A2995 RMK A01 T02610196  RH  068%=      5-min Rain = 0
KHA3 171102Z 18013KT 26/20 A2995 RMK A01 T02600196  RH  068%=      5-min Rain = 0
KHA3 171103Z 18014KT 26/20 A2995 RMK A01 T02600196  RH  068%=      5-min Rain = 0
KHA3 171104Z 18014KT 26/20 A2995 RMK A01 T02600196  RH  068%=      5-min Rain = 0
KHA3 171105Z 18014KT 26/20 A2995 RMK A01 T02600196  RH  068%=      5-min Rain = 0
KHA3 171106Z 18013KT 26/20 A2995 RMK A01 T02600196  RH  068%=      5-min Rain = 0
KHA3 171107Z 18013KT 26/20 A2995 RMK A01 T02600196  RH  068%=      5-min Rain = 0
KHA3 171108Z 18014KT 26/20 A2995 RMK A01 T02600196  RH  068%=      5-min Rain = 0
KHA3 171109Z 18014KT 26/20 A2995 RMK A01 T02600196  RH  068%=      5-min Rain = 0
KHA3 171110Z 18015KT 26/20 A2995 RMK A01 T02600196  RH  068%=      5-min Rain = 0
KHA3 171111Z 18014KT 26/20 A2995 RMK A01 T02600196  RH  068%=      5-min Rain = 0
KHA3 171112Z 18013KT 26/20 A2995 RMK A01 T02600196  RH  068%=      5-min Rain = 0
KHA3 171113Z 18014KT 26/20 A2995 RMK A01 T02590197  RH  068%=      5-min Rain = 0
KHA3 171114Z 18012KT 26/20 A2995 RMK A01 T02590197  RH  068%=      5-min Rain = 0
KHA3 171115Z 18013KT 26/20 A2995 RMK A01 T02590197  RH  068%=      5-min Rain = 0
KHA3 171116Z 19013KT 26/20 A2995 RMK A01 T02590197  RH  069%=      5-min Rain = 0
KHA3 171117Z 18013KT 26/20 A2995 RMK A01 T02590197  RH  069%=      5-min Rain = 0
KHA3 171118Z 18014KT 26/20 A2995 RMK A01 T02590197  RH  069%=      5-min Rain = 0
KHA3 171119Z 18014KT 26/20 A2995 RMK A01 T02590197  RH  069%=      5-min Rain = 0
KHA3 171120Z 19013KT 26/20 A2995 RMK A01 T02590197  RH  069%=      5-min Rain = 0
KHA3 171121Z 18013KT 26/20 A2995 RMK A01 T02590197  RH  069%=      5-min Rain = 0
KHA3 171122Z 19013KT 26/20 A2995 RMK A01 T02580197  RH  069%=      5-min Rain = 0
KHA3 171123Z 18015KT 26/20 A2995 RMK A01 T02580197  RH  069%=      5-min Rain = 0
KHA3 171124Z 18013KT 26/20 A2996 RMK A01 T02580197  RH  069%=      5-min Rain = 0
KHA3 171125Z 18014KT 26/20 A2995 RMK A01 T02590198  RH  069%=      5-min Rain = 0
KHA3 171126Z 18015KT 26/20 A2995 RMK A01 T02580197  RH  069%=      5-min Rain = 0
KHA3 171127Z 18014KT 26/20 A2996 RMK A01 T02580197  RH  069%=      5-min Rain = 0
KHA3 171128Z 18014KT 26/20 A2995 RMK A01 T02580197  RH  069%=      5-min Rain = 0
KHA3 171129Z 18014KT 26/20 A2995 RMK A01 T02580198  RH  069%=      5-min Rain = 0
KHA3 171130Z 18014KT 26/20 A2995 RMK A01 T02580198  RH  069%=      5-min Rain = 0
KHA3 171131Z 18013KT 26/20 A2995 RMK A01 T02580198  RH  069%=      5-min Rain = 0
KHA3 171132Z 18014KT 26/20 A2995 RMK A01 T02580198  RH  070%=      5-min Rain = 0
KHA3 171133Z 19014KT 26/20 A2995 RMK A01 T02570198  RH  070%=      5-min Rain = 0
KHA3 171134Z 18014KT 26/20 A2995 RMK A01 T02580198  RH  070%=      5-min Rain = 0
KHA3 171135Z 18013KT 26/20 A2995 RMK A01 T02580198  RH  070%=      5-min Rain = 0
KHA3 171136Z 18014KT 26/20 A2995 RMK A01 T02580198  RH  070%=      5-min Rain = 0
KHA3 171137Z 18014KT 26/20 A2995 RMK A01 T02580199  RH  070%=      5-min Rain = 0
KHA3 171138Z 18015KT 26/20 A2995 RMK A01 T02570198  RH  070%=      5-min Rain = 0
KHA3 171139Z 18014KT 26/20 A2996 RMK A01 T02570198  RH  070%=      5-min Rain = 0
KHA3 171140Z 18015KT 26/20 A2995 RMK A01 T02570198  RH  070%=      5-min Rain = 0
KHA3 171141Z 18014KT 26/20 A2996 RMK A01 T02580198  RH  070%=      5-min Rain = 0
KHA3 171142Z 18014KT 26/20 A2996 RMK A01 T02580198  RH  070%=      5-min Rain = 0
KHA3 171143Z 18014KT 26/20 A2996 RMK A01 T02580198  RH  070%=      5-min Rain = 0
KHA3 171144Z 18014KT 26/20 A2996 RMK A01 T02580199  RH  070%=      5-min Rain = 0
KHA3 171145Z 18014KT 26/20 A2996 RMK A01 T02570199  RH  070%=      5-min Rain = 0
KHA3 171146Z 18014KT 26/20 A2996 RMK A01 T02570199  RH  070%=      5-min Rain = 0
KHA3 171147Z 18014KT 26/20 A2996 RMK A01 T02570199  RH  070%=      5-min Rain = 0
KHA3 171148Z 18014KT 26/20 A2996 RMK A01 T02580199  RH  070%=      5-min Rain = 0
KHA3 171149Z 18013KT 26/20 A2996 RMK A01 T02580199  RH  070%=      5-min Rain = 0
KHA3 171150Z 18013KT 26/20 A2996 RMK A01 T02580199  RH  070%=      5-min Rain = 0
KHA3 171151Z 18014KT 26/20 A2996 RMK A01 T02580199  RH  070%=      5-min Rain = 0
KHA3 171152Z 18014KT 26/20 A2996 RMK A01 T02570199  RH  070%=      5-min Rain = 0
KHA3 171153Z 18013KT 26/20 A2996 RMK A01 T02570199  RH  070%=      5-min Rain = 0
KHA3 171154Z 18014KT 26/20 A2996 RMK A01 T02570200  RH  070%=      5-min Rain = 0
KHA3 171155Z 18013KT 26/20 A2996 RMK A01 T02570199  RH  070%=      5-min Rain = 0
KHA3 171156Z 18013KT 26/20 A2996 RMK A01 T02570199  RH  070%=      5-min Rain = 0
KHA3 171157Z 18013KT 26/20 A2996 RMK A01 T02570200  RH  070%=      5-min Rain = 0
KHA3 171158Z 18014KT 26/20 A2996 RMK A01 T02570200  RH  070%=      5-min Rain = 0
KHA3 171159Z 18013KT 26/20 A2996 RMK A01 T02580200  RH  070%=      5-min Rain = 0
KHA3 171200Z 18014KT 26/20 A2996 RMK A01 T02580200  RH  070%=      5-min Rain = 0
KHA3 171201Z 18013KT 26/20 A2996 RMK A01 T02580200  RH  070%=      5-min Rain = 0
KHA3 171202Z 18014KT 26/20 A2996 RMK A01 T02580200  RH  070%=      5-min Rain = 0
KHA3 171203Z 18013KT 26/20 A2996 RMK A01 T02580200  RH  070%=      5-min Rain = 0
KHA3 171204Z 19014KT 26/20 A2996 RMK A01 T02580200  RH  070%=      5-min Rain = 0
KHA3 171205Z 19013KT 26/20 A2996 RMK A01 T02580200  RH  070%=      5-min Rain = 0
KHA3 171206Z 19012KT 26/20 A2997 RMK A01 T02580200  RH  070%=      5-min Rain = 0
KHA3 171207Z 19014KT 26/20 A2997 RMK A01 T02580200  RH  070%=      5-min Rain = 0
KHA3 171208Z 19013KT 26/20 A2997 RMK A01 T02580200  RH  070%=      5-min Rain = 0
KHA3 171209Z 19013KT 26/20 A2997 RMK A01 T02590201  RH  070%=      5-min Rain = 0
KHA3 171210Z 19012KT 26/20 A2997 RMK A01 T02590201  RH  070%=      5-min Rain = 0
KHA3 171211Z 19012KT 26/20 A2997 RMK A01 T02590201  RH  071%=      5-min Rain = 0
KHA3 171212Z 19014KT 26/20 A2997 RMK A01 T02590201  RH  070%=      5-min Rain = 0
KHA3 171213Z 19012KT 26/20 A2997 RMK A01 T02590201  RH  070%=      5-min Rain = 0
KHA3 171214Z 18011KT 26/20 A2997 RMK A01 T02590201  RH  070%=      5-min Rain = 0
KHA3 171215Z 19012KT 26/20 A2997 RMK A01 T02590201  RH  070%=      5-min Rain = 0
KHA3 171216Z 19014KT 26/20 A2997 RMK A01 T02600202  RH  071%=      5-min Rain = 0
KHA3 171217Z 18013KT 26/20 A2997 RMK A01 T02590201  RH  070%=      5-min Rain = 0
KHA3 171218Z 18012KT 26/20 A2997 RMK A01 T02600201  RH  070%=      5-min Rain = 0
KHA3 171219Z 18013KT 26/20 A2997 RMK A01 T02600202  RH  070%=      5-min Rain = 0
KHA3 171220Z 18012KT 26/20 A2997 RMK A01 T02600202  RH  070%=      5-min Rain = 0
KHA3 171221Z 18013KT 26/20 A2997 RMK A01 T02600202  RH  070%=      5-min Rain = 0
KHA3 171222Z 18013KT 26/20 A2997 RMK A01 T02600202  RH  070%=      5-min Rain = 0
KHA3 171223Z 19013KT 26/20 A2997 RMK A01 T02600202  RH  070%=      5-min Rain = 0
KHA3 171224Z 19013KT 26/20 A2997 RMK A01 T02610202  RH  070%=      5-min Rain = 0
KHA3 171225Z 19013KT 26/20 A2997 RMK A01 T02610203  RH  070%=      5-min Rain = 0
KHA3 171226Z 19012KT 26/20 A2997 RMK A01 T02620203  RH  070%=      5-min Rain = 0
KHA3 171227Z 19013KT 26/20 A2997 RMK A01 T02620203  RH  070%=      5-min Rain = 0
KHA3 171228Z 19016KT 26/20 A2997 RMK A01 T02620202  RH  070%=      5-min Rain = 0
KHA3 171229Z 18014KT 26/20 A2997 RMK A01 T02620202  RH  070%=      5-min Rain = 0
KHA3 171230Z 19014KT 26/20 A2997 RMK A01 T02630203  RH  070%=      5-min Rain = 0
KHA3 171231Z 19014KT 26/20 A2997 RMK A01 T02630203  RH  070%=      5-min Rain = 0
KHA3 171232Z 18014KT 26/20 A2997 RMK A01 T02630203  RH  070%=      5-min Rain = 0
KHA3 171233Z 19015KT 26/20 A2997 RMK A01 T02630203  RH  070%=      5-min Rain = 0
KHA3 171234Z 19013KT 26/20 A2997 RMK A01 T02640203  RH  069%=      5-min Rain = 0
KHA3 171235Z 19014KT 26/20 A2997 RMK A01 T02640204  RH  069%=      5-min Rain = 0
KHA3 171236Z 19014KT 26/20 A2997 RMK A01 T02640204  RH  069%=      5-min Rain = 0
KHA3 171237Z 19015KT 26/20 A2997 RMK A01 T02640204  RH  069%=      5-min Rain = 0
KHA3 171238Z 19014KT 27/20 A2997 RMK A01 T02650204  RH  069%=      5-min Rain = 0
KHA3 171239Z 19014KT 27/20 A2997 RMK A01 T02650204  RH  069%=      5-min Rain = 0
KHA3 171240Z 19016KT 27/20 A2997 RMK A01 T02650204  RH  069%=      5-min Rain = 0
KHA3 171241Z 19012KT 27/20 A2997 RMK A01 T02650204  RH  069%=      5-min Rain = 0
KHA3 171242Z 19015KT 27/21 A2997 RMK A01 T02660205  RH  069%=      5-min Rain = 0
KHA3 171243Z 19015KT 27/20 A2997 RMK A01 T02660204  RH  069%=      5-min Rain = 0
KHA3 171244Z 19014KT 27/21 A2997 RMK A01 T02660205  RH  069%=      5-min Rain = 0
KHA3 171245Z 19014KT 27/21 A2997 RMK A01 T02660205  RH  069%=      5-min Rain = 0
KHA3 171246Z 19013KT 27/21 A2997 RMK A01 T02670205  RH  069%=      5-min Rain = 0
KHA3 171247Z 19013KT 27/21 A2997 RMK A01 T02670205  RH  069%=      5-min Rain = 0
KHA3 171248Z 19014KT 27/21 A2997 RMK A01 T02670205  RH  069%=      5-min Rain = 0
KHA3 171249Z 19014KT 27/21 A2997 RMK A01 T02680205  RH  069%=      5-min Rain = 0
KHA3 171250Z 19014KT 27/21 A2997 RMK A01 T02680205  RH  069%=      5-min Rain = 0
KHA3 171251Z 19015KT 27/21 A2997 RMK A01 T02680206  RH  069%=      5-min Rain = 0
KHA3 171252Z 19015KT 27/21 A2997 RMK A01 T02680205  RH  068%=      5-min Rain = 0
KHA3 171253Z 19013KT 27/21 A2997 RMK A01 T02680206  RH  069%=      5-min Rain = 0
KHA3 171254Z 19015KT 27/21 A2997 RMK A01 T02690206  RH  068%=      5-min Rain = 0
KHA3 171255Z 19013KT 27/21 A2998 RMK A01 T02690206  RH  068%=      5-min Rain = 0
KHA3 171256Z 19015KT 27/21 A2998 RMK A01 T02690206  RH  068%=      5-min Rain = 0
KHA3 171257Z 19014KT 27/21 A2998 RMK A01 T02700206  RH  068%=      5-min Rain = 0
KHA3 171258Z 19014KT 27/21 A2998 RMK A01 T02700206  RH  068%=      5-min Rain = 0
KHA3 171259Z 19015KT 27/21 A2998 RMK A01 T02710207  RH  068%=      5-min Rain = 0
KHA3 171300Z 19014KT 27/21 A2998 RMK A01 T02710207  RH  068%=      5-min Rain = 0
KHA3 171301Z 19014KT 27/21 A2998 RMK A01 T02710207  RH  068%=      5-min Rain = 0
KHA3 171302Z 19013KT 27/21 A2998 RMK A01 T02720207  RH  068%=      5-min Rain = 0
KHA3 171303Z 18014KT 27/21 A2998 RMK A01 T02720207  RH  068%=      5-min Rain = 0
KHA3 171304Z 19014KT 27/21 A2998 RMK A01 T02730207  RH  067%=      5-min Rain = 0
KHA3 171305Z 19014KT 27/21 A2998 RMK A01 T02730207  RH  067%=      5-min Rain = 0
KHA3 171306Z 18014KT 27/21 A2998 RMK A01 T02730208  RH  067%=      5-min Rain = 0
KHA3 171307Z 19016KT 27/21 A2998 RMK A01 T02730207  RH  067%=      5-min Rain = 0
KHA3 171308Z 19014KT 27/21 A2998 RMK A01 T02740207  RH  067%=      5-min Rain = 0
KHA3 171309Z 19014KT 27/21 A2998 RMK A01 T02740208  RH  067%=      5-min Rain = 0
KHA3 171310Z 19014KT 27/21 A2998 RMK A01 T02740207  RH  067%=      5-min Rain = 0
KHA3 171311Z 19014KT 28/21 A2998 RMK A01 T02750208  RH  067%=      5-min Rain = 0
KHA3 171312Z 19015KT 28/21 A2998 RMK A01 T02750208  RH  067%=      5-min Rain = 0
KHA3 171313Z 19015KT 28/21 A2998 RMK A01 T02750208  RH  067%=      5-min Rain = 0
KHA3 171314Z 19013G18KT 28/21 A2998 RMK A01 T02760208  RH  067%=      5-min Rain = 0
KHA3 171315Z 19015KT 28/21 A2998 RMK A01 T02760208  RH  066%=      5-min Rain = 0
KHA3 171316Z 19015KT 28/21 A2998 RMK A01 T02760208  RH  067%=      5-min Rain = 0
KHA3 171317Z 19013KT 28/21 A2998 RMK A01 T02760209  RH  067%=      5-min Rain = 0
KHA3 171318Z 19015KT 28/21 A2998 RMK A01 T02770209  RH  066%=      5-min Rain = 0
KHA3 171319Z 19013KT 28/21 A2998 RMK A01 T02770209  RH  066%=      5-min Rain = 0
KHA3 171320Z 20013KT 28/21 A2998 RMK A01 T02780210  RH  066%=      5-min Rain = 0
KHA3 171321Z 19016KT 28/21 A2998 RMK A01 T02780209  RH  066%=      5-min Rain = 0
KHA3 171322Z 19017KT 28/21 A2998 RMK A01 T02790209  RH  066%=      5-min Rain = 0
KHA3 171323Z 19014KT 28/21 A2998 RMK A01 T02790209  RH  066%=      5-min Rain = 0
KHA3 171324Z 20014KT 28/21 A2998 RMK A01 T02790209  RH  066%=      5-min Rain = 0
KHA3 171325Z 19012KT 28/21 A2998 RMK A01 T02790210  RH  066%=      5-min Rain = 0
KHA3 171326Z 19016KT 28/21 A2998 RMK A01 T02800210  RH  066%=      5-min Rain = 0
KHA3 171327Z 19016KT 28/21 A2998 RMK A01 T02800209  RH  065%=      5-min Rain = 0
KHA3 171328Z 19015KT 28/21 A2998 RMK A01 T02800209  RH  065%=      5-min Rain = 0
KHA3 171329Z 19015KT 28/21 A2998 RMK A01 T02800210  RH  066%=      5-min Rain = 0
KHA3 171330Z 19016KT 28/21 A2998 RMK A01 T02810210  RH  065%=      5-min Rain = 0
KHA3 171331Z 19016KT 28/21 A2998 RMK A01 T02810210  RH  065%=      5-min Rain = 0
KHA3 171332Z 19017KT 28/21 A2999 RMK A01 T02810210  RH  065%=      5-min Rain = 0
KHA3 171333Z 20017KT 28/21 A2999 RMK A01 T02810209  RH  065%=      5-min Rain = 0
KHA3 171334Z 20013KT 28/21 A2999 RMK A01 T02810210  RH  065%=      5-min Rain = 0
KHA3 171335Z 19014KT 28/21 A2999 RMK A01 T02820210  RH  065%=      5-min Rain = 0
KHA3 171336Z 19014KT 28/21 A2999 RMK A01 T02830211  RH  065%=      5-min Rain = 0
KHA3 171337Z 20015KT 28/21 A2999 RMK A01 T02840210  RH  064%=      5-min Rain = 0
KHA3 171338Z 20012KT 28/21 A2999 RMK A01 T02840210  RH  064%=      5-min Rain = 0
KHA3 171339Z 20014KT 29/21 A2999 RMK A01 T02850211  RH  064%=      5-min Rain = 0
KHA3 171340Z 20017KT 29/21 A2999 RMK A01 T02860209  RH  063%=      5-min Rain = 0
KHA3 171341Z 20016KT 29/21 A2999 RMK A01 T02850210  RH  064%=      5-min Rain = 0
KHA3 171342Z 20015KT 29/21 A2999 RMK A01 T02850210  RH  064%=      5-min Rain = 0
KHA3 171343Z 20017KT 29/21 A2999 RMK A01 T02850210  RH  064%=      5-min Rain = 0
KHA3 171344Z 20015KT 29/21 A2999 RMK A01 T02860210  RH  064%=      5-min Rain = 0
KHA3 171345Z 20014KT 29/21 A2999 RMK A01 T02860210  RH  064%=      5-min Rain = 0
KHA3 171346Z 20014KT 29/21 A2999 RMK A01 T02870211  RH  064%=      5-min Rain = 0
KHA3 171347Z 21017KT 29/21 A2999 RMK A01 T02870210  RH  063%=      5-min Rain = 0
KHA3 171348Z 21013KT 29/21 A2999 RMK A01 T02870210  RH  063%=      5-min Rain = 0
KHA3 171349Z 20017KT 29/21 A2999 RMK A01 T02880210  RH  063%=      5-min Rain = 0
KHA3 171350Z 20017KT 29/21 A2999 RMK A01 T02880209  RH  063%=      5-min Rain = 0
KHA3 171351Z 21016KT 29/21 A2999 RMK A01 T02880210  RH  063%=      5-min Rain = 0
KHA3 171352Z 19016KT 29/21 A2999 RMK A01 T02880210  RH  063%=      5-min Rain = 0
KHA3 171353Z 20016KT 29/21 A2999 RMK A01 T02880209  RH  062%=      5-min Rain = 0
KHA3 171354Z 20014G19KT 29/21 A2999 RMK A01 T02880210  RH  063%=      5-min Rain = 0
KHA3 171355Z 21015KT 29/21 A2999 RMK A01 T02880211  RH  063%=      5-min Rain = 0
KHA3 171356Z 22014KT 29/21 A2999 RMK A01 T02890210  RH  062%=      5-min Rain = 0
KHA3 171357Z 21014KT 29/21 A30 RMK A01 T02900211  RH  062%=      5-min Rain = 0
KHA3 171358Z 22013KT 29/21 A30 RMK A01 T02910211  RH  062%=      5-min Rain = 0
KHA3 171359Z 22015KT 29/21 A30 RMK A01 T02920210  RH  061%=      5-min Rain = 0
KHA3 171400Z 20015KT 29/21 A30 RMK A01 T02920211  RH  062%=      5-min Rain = 0
KHA3 171401Z 21013KT 29/21 A30 RMK A01 T02920211  RH  062%=      5-min Rain = 0
KHA3 171402Z 21014KT 29/21 A30 RMK A01 T02920211  RH  061%=      5-min Rain = 0
KHA3 171403Z 21012KT 29/21 A30 RMK A01 T02930211  RH  061%=      5-min Rain = 0
KHA3 171404Z 22016G21KT 29/21 A30 RMK A01 T02930211  RH  061%=      5-min Rain = 0
KHA3 171405Z 22016KT 29/21 A30 RMK A01 T02920209  RH  061%=      5-min Rain = 0
KHA3 171406Z 22016KT 29/21 A30 RMK A01 T02910209  RH  061%=      5-min Rain = 0
KHA3 171407Z 22017KT 29/21 A30 RMK A01 T02900209  RH  062%=      5-min Rain = 0
KHA3 171408Z 21016KT 29/21 A30 RMK A01 T02900210  RH  062%=      5-min Rain = 0
KHA3 171409Z 22015KT 29/21 A30 RMK A01 T02910210  RH  062%=      5-min Rain = 0
KHA3 171410Z 22015KT 29/21 A30 RMK A01 T02900210  RH  062%=      5-min Rain = 0
KHA3 171411Z 21013KT 29/21 A30 RMK A01 T02910211  RH  062%=      5-min Rain = 0
KHA3 171412Z 21012KT 29/21 A30 RMK A01 T02930213  RH  062%=      5-min Rain = 0
KHA3 171413Z 22013KT 30/21 A30 RMK A01 T02960213  RH  061%=      5-min Rain = 0
KHA3 171414Z 21014KT 30/21 A30 RMK A01 T02960212  RH  061%=      5-min Rain = 0
KHA3 171415Z 22012KT 30/21 A30 RMK A01 T02950212  RH  061%=      5-min Rain = 0
KHA3 171416Z 22013KT 29/21 A30 RMK A01 T02940211  RH  061%=      5-min Rain = 0
KHA3 171417Z 22012KT 29/21 A30 RMK A01 T02930211  RH  061%=      5-min Rain = 0
KHA3 171418Z 22015G20KT 29/21 A30 RMK A01 T02920211  RH  062%=      5-min Rain = 0
KHA3 171419Z 21016KT 29/21 A30 RMK A01 T02910210  RH  061%=      5-min Rain = 0
KHA3 171420Z 22015KT 29/21 A30 RMK A01 T02910210  RH  062%=      5-min Rain = 0
KHA3 171421Z 20015KT 29/21 A30 RMK A01 T02910210  RH  062%=      5-min Rain = 0
KHA3 171422Z 21017KT 29/21 A30 RMK A01 T02920211  RH  062%=      5-min Rain = 0
KHA3 171423Z 21018KT 29/21 A30 RMK A01 T02930211  RH  061%=      5-min Rain = 0
KHA3 171424Z 21017KT 29/21 A30 RMK A01 T02930210  RH  061%=      5-min Rain = 0
KHA3 171425Z 21019KT 29/21 A30 RMK A01 T02930210  RH  061%=      5-min Rain = 0
KHA3 171426Z 22016KT 29/21 A30 RMK A01 T02930209  RH  061%=      5-min Rain = 0
KHA3 171427Z 22015KT 29/21 A30 RMK A01 T02920209  RH  061%=      5-min Rain = 0
KHA3 171428Z 22015KT 29/21 A30 RMK A01 T02920210  RH  061%=      5-min Rain = 0
KHA3 171429Z 22016KT 29/21 A30 RMK A01 T02930209  RH  061%=      5-min Rain = 0
KHA3 171430Z 22013G18KT 29/21 A30 RMK A01 T02930210  RH  061%=      5-min Rain = 0
KHA3 171431Z 21014G20KT 29/21 A30 RMK A01 T02930209  RH  061%=      5-min Rain = 0
KHA3 171432Z 21014KT 30/21 A30 RMK A01 T02950210  RH  060%=      5-min Rain = 0
KHA3 171433Z 22012KT 30/21 A30 RMK A01 T02960211  RH  060%=      5-min Rain = 0
KHA3 171434Z 21013KT 30/21 A30 RMK A01 T02980211  RH  060%=      5-min Rain = 0
KHA3 171435Z 21011G17KT 30/21 A30 RMK A01 T02990212  RH  060%=      5-min Rain = 0
KHA3 171436Z 21013KT 30/21 A30 RMK A01 T03010213  RH  059%=      5-min Rain = 0
KHA3 171437Z 21018KT 30/21 A30 RMK A01 T03020211  RH  058%=      5-min Rain = 0
KHA3 171438Z 22015KT 30/21 A30 RMK A01 T03000211  RH  059%=      5-min Rain = 0
KHA3 171439Z 21016KT 30/21 A30 RMK A01 T03000212  RH  059%=      5-min Rain = 0
KHA3 171440Z 22016KT 30/21 A30 RMK A01 T02990211  RH  059%=      5-min Rain = 0
KHA3 171441Z 22016KT 30/21 A30 RMK A01 T02980210  RH  059%=      5-min Rain = 0
KHA3 171442Z 20014KT 30/21 A30 RMK A01 T02970211  RH  060%=      5-min Rain = 0
KHA3 171443Z 20018KT 30/21 A30 RMK A01 T02980210  RH  059%=      5-min Rain = 0
KHA3 171444Z 20019G24KT 30/21 A30 RMK A01 T02980209  RH  059%=      5-min Rain = 0
KHA3 171445Z 21019KT 30/21 A30 RMK A01 T02980210  RH  059%=      5-min Rain = 0
KHA3 171446Z 21018KT 30/21 A30 RMK A01 T02970209  RH  059%=      5-min Rain = 0
KHA3 171447Z 21018KT 30/21 A30 RMK A01 T02970209  RH  059%=      5-min Rain = 0
KHA3 171448Z 21014KT 30/21 A30 RMK A01 T02970210  RH  059%=      5-min Rain = 0
KHA3 171449Z 20016KT 30/21 A30 RMK A01 T02990211  RH  059%=      5-min Rain = 0
KHA3 171450Z 21015KT 30/21 A2999 RMK A01 T03000210  RH  059%=      5-min Rain = 0
KHA3 171451Z 20017KT 30/21 A2999 RMK A01 T03000211  RH  059%=      5-min Rain = 0
KHA3 171452Z 21016KT 30/21 A2999 RMK A01 T03000210  RH  059%=      5-min Rain = 0
KHA3 171453Z 22015KT 30/21 A2999 RMK A01 T03000210  RH  059%=      5-min Rain = 0
KHA3 171454Z 20016G22KT 30/21 A2999 RMK A01 T03000210  RH  059%=      5-min Rain = 0
KHA3 171455Z 21020KT 30/21 A2999 RMK A01 T03010209  RH  058%=      5-min Rain = 0
KHA3 171456Z 21018KT 30/21 A2999 RMK A01 T03010210  RH  058%=      5-min Rain = 0
KHA3 171457Z 21019KT 30/21 A2999 RMK A01 T03010209  RH  058%=      5-min Rain = 0
KHA3 171458Z 22016KT 30/21 A2999 RMK A01 T03010209  RH  058%=      5-min Rain = 0
KHA3 171459Z 21014KT 30/21 A2999 RMK A01 T03010210  RH  058%=      5-min Rain = 0
KHA3 171500Z 20016KT 30/21 A2999 RMK A01 T03030210  RH  058%=      5-min Rain = 0
KHA3 171501Z 20015KT 30/21 A2999 RMK A01 T03040211  RH  058%=      5-min Rain = 0
KHA3 171502Z 21017KT 31/21 A2999 RMK A01 T03060211  RH  057%=      5-min Rain = 0
KHA3 171503Z 20015KT 31/21 A2999 RMK A01 T03050210  RH  057%=      5-min Rain = 0
KHA3 171504Z 21013G18KT 30/21 A2999 RMK A01 T03040211  RH  058%=      5-min Rain = 0
KHA3 171505Z 20015G21KT 31/21 A2999 RMK A01 T03050211  RH  057%=      5-min Rain = 0
KHA3 171506Z 21016KT 31/21 A2999 RMK A01 T03060211  RH  057%=      5-min Rain = 0
KHA3 171507Z 21016KT 31/21 A2999 RMK A01 T03060211  RH  057%=      5-min Rain = 0
KHA3 171508Z 21013G20KT 31/21 A2999 RMK A01 T03060211  RH  057%=      5-min Rain = 0
KHA3 171509Z 21016KT 31/21 A2999 RMK A01 T03070211  RH  056%=      5-min Rain = 0
KHA3 171510Z 22017KT 31/21 A2999 RMK A01 T03060211  RH  057%=      5-min Rain = 0
KHA3 171511Z 21016KT 31/21 A2999 RMK A01 T03050209  RH  057%=      5-min Rain = 0
KHA3 171512Z 21017KT 30/21 A2999 RMK A01 T03040210  RH  057%=      5-min Rain = 0
KHA3 171513Z 21017KT 30/21 A2999 RMK A01 T03040210  RH  057%=      5-min Rain = 0
KHA3 171514Z 20018KT 31/21 A2999 RMK A01 T03050210  RH  057%=      5-min Rain = 0
KHA3 171515Z 21014KT 31/21 A2999 RMK A01 T03050210  RH  057%=      5-min Rain = 0
KHA3 171516Z 21017KT 31/21 A2999 RMK A01 T03070211  RH  057%=      5-min Rain = 0
KHA3 171517Z 20016KT 31/21 A2999 RMK A01 T03080210  RH  056%=      5-min Rain = 0
KHA3 171518Z 21014KT 31/21 A2999 RMK A01 T03070212  RH  057%=      5-min Rain = 0
KHA3 171519Z 21014KT 31/21 A2999 RMK A01 T03070211  RH  057%=      5-min Rain = 0
KHA3 171520Z 21016KT 31/21 A2999 RMK A01 T03080211  RH  056%=      5-min Rain = 0
KHA3 171521Z 21017KT 31/21 A2999 RMK A01 T03080211  RH  056%=      5-min Rain = 0
KHA3 171522Z 20015KT 31/21 A2999 RMK A01 T03070211  RH  057%=      5-min Rain = 0
KHA3 171523Z 22015KT 31/21 A2999 RMK A01 T03080211  RH  056%=      5-min Rain = 0
KHA3 171524Z 22015KT 31/21 A2999 RMK A01 T03090210  RH  056%=      5-min Rain = 0
KHA3 171525Z 22013KT 31/21 A2999 RMK A01 T03100213  RH  056%=      5-min Rain = 0
KHA3 171526Z 22014KT 31/21 A2999 RMK A01 T03120212  RH  055%=      5-min Rain = 0
KHA3 171527Z 20014KT 31/21 A2999 RMK A01 T03120214  RH  056%=      5-min Rain = 0
KHA3 171528Z 21013KT 31/21 A2999 RMK A01 T03130212  RH  055%=      5-min Rain = 0
KHA3 171529Z 20013KT 31/22 A2999 RMK A01 T03130216  RH  056%=      5-min Rain = 0
KHA3 171530Z 21014KT 32/22 A2999 RMK A01 T03170215  RH  055%=      5-min Rain = 0
KHA3 171531Z 19017KT 32/21 A2999 RMK A01 T03180212  RH  053%=      5-min Rain = 0
KHA3 171532Z 20018KT 32/21 A2999 RMK A01 T03160212  RH  054%=      5-min Rain = 0
KHA3 171533Z 20017KT 32/21 A2999 RMK A01 T03150212  RH  054%=      5-min Rain = 0
KHA3 171534Z 20016KT 31/21 A2999 RMK A01 T03140212  RH  055%=      5-min Rain = 0
KHA3 171535Z 20015KT 31/21 A2999 RMK A01 T03140212  RH  055%=      5-min Rain = 0
KHA3 171536Z 19016KT 31/21 A2999 RMK A01 T03140211  RH  054%=      5-min Rain = 0
KHA3 171537Z 19015KT 31/21 A2999 RMK A01 T03140212  RH  055%=      5-min Rain = 0
KHA3 171538Z 20018KT 31/21 A2999 RMK A01 T03140211  RH  054%=      5-min Rain = 0
KHA3 171539Z 20015KT 32/21 A2999 RMK A01 T03150211  RH  054%=      5-min Rain = 0
KHA3 171540Z 20015KT 31/21 A2999 RMK A01 T03140212  RH  055%=      5-min Rain = 0
KHA3 171541Z 21015KT 32/21 A2999 RMK A01 T03150213  RH  055%=      5-min Rain = 0
KHA3 171542Z 22012KT 32/21 A2999 RMK A01 T03170212  RH  054%=      5-min Rain = 0
KHA3 171543Z 20014KT 32/21 A2999 RMK A01 T03190214  RH  054%=      5-min Rain = 0
KHA3 171544Z 19014KT 32/21 A2999 RMK A01 T03210212  RH  053%=      5-min Rain = 0
KHA3 171545Z 19015KT 32/21 A2999 RMK A01 T03190211  RH  053%=      5-min Rain = 0
KHA3 171546Z 19012KT 32/21 A2999 RMK A01 T03180212  RH  053%=      5-min Rain = 0
KHA3 171547Z 20013KT 32/21 A2999 RMK A01 T03180214  RH  054%=      5-min Rain = 0
KHA3 171548Z 21012KT 32/21 A2999 RMK A01 T03220214  RH  053%=      5-min Rain = 0
KHA3 171549Z 21016KT 32/21 A2999 RMK A01 T03240213  RH  052%=      5-min Rain = 0
KHA3 171550Z 19014KT 32/21 A2999 RMK A01 T03240213  RH  052%=      5-min Rain = 0
KHA3 171551Z 20015KT 32/21 A2999 RMK A01 T03230213  RH  052%=      5-min Rain = 0
KHA3 171552Z 20014G20KT 32/21 A2999 RMK A01 T03230214  RH  052%=      5-min Rain = 0
KHA3 171553Z 21016KT 32/21 A2999 RMK A01 T03230211  RH  052%=      5-min Rain = 0
KHA3 171554Z 22016KT 32/21 A2999 RMK A01 T03230211  RH  052%=      5-min Rain = 0
KHA3 171555Z 21014KT 32/21 A2999 RMK A01 T03230211  RH  052%=      5-min Rain = 0
KHA3 171556Z 22015KT 32/21 A2999 RMK A01 T03240211  RH  051%=      5-min Rain = 0
KHA3 171557Z 22014KT 32/21 A2999 RMK A01 T03240211  RH  051%=      5-min Rain = 0
KHA3 171558Z 22011KT 33/21 A2999 RMK A01 T03250213  RH  052%=      5-min Rain = 0
KHA3 171559Z 21015KT 33/21 A2999 RMK A01 T03270212  RH  051%=      5-min Rain = 0
KHA3 171600Z 22015KT 33/21 A2999 RMK A01 T03270211  RH  050%=      5-min Rain = 0
KHA3 171601Z 21014G19KT 33/21 A2999 RMK A01 T03270212  RH  051%=      5-min Rain = 0
KHA3 171602Z 21016KT 33/21 A2999 RMK A01 T03280213  RH  051%=      5-min Rain = 0
KHA3 171603Z 21017KT 33/21 A2999 RMK A01 T03290210  RH  050%=      5-min Rain = 0
KHA3 171604Z 21016KT 33/21 A2999 RMK A01 T03280211  RH  050%=      5-min Rain = 0
KHA3 171605Z 21014KT 33/21 A2999 RMK A01 T03270210  RH  050%=      5-min Rain = 0
KHA3 171606Z 19016KT 33/21 A2999 RMK A01 T03260210  RH  051%=      5-min Rain = 0
KHA3 171607Z 20017KT 33/21 A2999 RMK A01 T03260211  RH  051%=      5-min Rain = 0
KHA3 171608Z 20017KT 33/21 A2999 RMK A01 T03270209  RH  050%=      5-min Rain = 0
KHA3 171609Z 19017KT 33/21 A2999 RMK A01 T03270210  RH  050%=      5-min Rain = 0
KHA3 171610Z 19018KT 33/21 A2999 RMK A01 T03270210  RH  050%=      5-min Rain = 0
KHA3 171611Z 20016KT 33/21 A2999 RMK A01 T03250209  RH  051%=      5-min Rain = 0
KHA3 171612Z 21012KT 32/21 A2999 RMK A01 T03240210  RH  051%=      5-min Rain = 0
KHA3 171613Z 20011G17KT 33/21 A2999 RMK A01 T03270213  RH  051%=      5-min Rain = 0
KHA3 171614Z 19016KT 33/21 A2999 RMK A01 T03310212  RH  050%=      5-min Rain = 0
KHA3 171615Z 19015KT 33/21 A2999 RMK A01 T03320211  RH  049%=      5-min Rain = 0
KHA3 171616Z 20015KT 33/21 A2999 RMK A01 T03310212  RH  050%=      5-min Rain = 0
KHA3 171617Z 19017KT 33/21 A2999 RMK A01 T03310211  RH  049%=      5-min Rain = 0
KHA3 171618Z 21013KT 33/21 A2999 RMK A01 T03320212  RH  049%=      5-min Rain = 0
KHA3 171619Z 22013KT 33/21 A2999 RMK A01 T03320211  RH  049%=      5-min Rain = 0
KHA3 171620Z 22012G17KT 33/21 A2999 RMK A01 T03310212  RH  050%=      5-min Rain = 0
KHA3 171621Z 22014KT 33/21 A2999 RMK A01 T03310212  RH  050%=      5-min Rain = 0
KHA3 171622Z 21017KT 33/21 A2999 RMK A01 T03330210  RH  048%=      5-min Rain = 0
KHA3 171623Z 21014KT 33/21 A2999 RMK A01 T03330208  RH  048%=      5-min Rain = 0
KHA3 171624Z 22013KT 33/21 A2999 RMK A01 T03320208  RH  048%=      5-min Rain = 0
KHA3 171625Z 23015KT 33/21 A2999 RMK A01 T03310208  RH  049%=      5-min Rain = 0
KHA3 171626Z 21013G19KT 33/21 A2999 RMK A01 T03300210  RH  049%=      5-min Rain = 0
KHA3 171627Z 20014KT 33/21 A2999 RMK A01 T03320211  RH  049%=      5-min Rain = 0
KHA3 171628Z 19015KT 33/21 A2999 RMK A01 T03340210  RH  048%=      5-min Rain = 0
KHA3 171629Z 21015KT 33/21 A2999 RMK A01 T03340210  RH  048%=      5-min Rain = 0
KHA3 171630Z 22016KT 33/21 A2999 RMK A01 T03340207  RH  048%=      5-min Rain = 0
KHA3 171631Z 21015KT 33/21 A2999 RMK A01 T03320207  RH  048%=      5-min Rain = 0
KHA3 171632Z 22015KT 33/21 A2999 RMK A01 T03340208  RH  048%=      5-min Rain = 0
KHA3 171633Z 22018KT 34/21 A2999 RMK A01 T03350206  RH  047%=      5-min Rain = 0
KHA3 171634Z 21014G19KT 33/21 A2999 RMK A01 T03330207  RH  048%=      5-min Rain = 0
KHA3 171635Z 22014KT 33/21 A2999 RMK A01 T03330207  RH  048%=      5-min Rain = 0
KHA3 171636Z 22016KT 33/21 A2999 RMK A01 T03330206  RH  047%=      5-min Rain = 0
KHA3 171637Z 20015KT 33/21 A2999 RMK A01 T03340209  RH  048%=      5-min Rain = 0
KHA3 171638Z 20012KT 34/21 A2999 RMK A01 T03360211  RH  048%=      5-min Rain = 0
KHA3 171639Z 21012KT 34/21 A2999 RMK A01 T03380210  RH  047%=      5-min Rain = 0
KHA3 171640Z 20012KT 34/21 A2999 RMK A01 T03390209  RH  047%=      5-min Rain = 0
KHA3 171641Z 21011KT 34/21 A2999 RMK A01 T03380209  RH  047%=      5-min Rain = 0
KHA3 171642Z 22012KT 34/21 A2999 RMK A01 T03360210  RH  048%=      5-min Rain = 0
KHA3 171643Z 22014KT 34/21 A2999 RMK A01 T03380208  RH  047%=      5-min Rain = 0
KHA3 171644Z 22014KT 34/21 A2999 RMK A01 T03390210  RH  047%=      5-min Rain = 0
KHA3 171645Z 22015KT 34/21 A2999 RMK A01 T03410208  RH  046%=      5-min Rain = 0
KHA3 171646Z 20015KT 34/21 A2999 RMK A01 T03400209  RH  047%=      5-min Rain = 0
KHA3 171647Z 20013KT 34/21 A2999 RMK A01 T03380210  RH  047%=      5-min Rain = 0
KHA3 171648Z 22015G20KT 34/21 A2999 RMK A01 T03390208  RH  046%=      5-min Rain = 0
KHA3 171649Z 21015KT 34/21 A2999 RMK A01 T03400207  RH  046%=      5-min Rain = 0
KHA3 171650Z 22016KT 34/21 A2999 RMK A01 T03400207  RH  046%=      5-min Rain = 0
KHA3 171651Z 22014KT 34/21 A2999 RMK A01 T03410207  RH  046%=      5-min Rain = 0
KHA3 171652Z 22014KT 34/21 A2999 RMK A01 T03410207  RH  046%=      5-min Rain = 0
KHA3 171653Z 22012KT 34/21 A2999 RMK A01 T03410208  RH  046%=      5-min Rain = 0
KHA3 171654Z 21012KT 35/21 A2999 RMK A01 T03450209  RH  045%=      5-min Rain = 0
KHA3 171655Z 22014KT 35/21 A2999 RMK A01 T03480210  RH  045%=      5-min Rain = 0
KHA3 171656Z 21015KT 35/21 A2999 RMK A01 T03480207  RH  044%=      5-min Rain = 0
KHA3 171657Z 21014KT 35/21 A2999 RMK A01 T03470208  RH  044%=      5-min Rain = 0
KHA3 171658Z 21012KT 35/21 A2999 RMK A01 T03450207  RH  045%=      5-min Rain = 0
KHA3 171659Z 21016KT 34/21 A2999 RMK A01 T03420208  RH  046%=      5-min Rain = 0
KHA3 171700Z 21016KT 34/21 A2999 RMK A01 T03430207  RH  045%=      5-min Rain = 0
KHA3 171701Z 21012KT 34/21 A2999 RMK A01 T03440208  RH  045%=      5-min Rain = 0
KHA3 171702Z 21012KT 35/21 A2999 RMK A01 T03450209  RH  045%=      5-min Rain = 0
KHA3 171703Z 19011KT 34/21 A2999 RMK A01 T03440208  RH  045%=      5-min Rain = 0
KHA3 171704Z 20012KT 34/21 A2999 RMK A01 T03410211  RH  047%=      5-min Rain = 0
KHA3 171705Z 18013KT 34/21 A2998 RMK A01 T03430209  RH  046%=      5-min Rain = 0
KHA3 171706Z 19016KT 34/21 A2998 RMK A01 T03440209  RH  045%=      5-min Rain = 0
KHA3 171707Z 20015G20KT 35/21 A2998 RMK A01 T03450210  RH  045%=      5-min Rain = 0
KHA3 171708Z 21016KT 35/21 A2998 RMK A01 T03470210  RH  045%=      5-min Rain = 0
KHA3 171709Z 22017KT 35/21 A2999 RMK A01 T03470207  RH  044%=      5-min Rain = 0
KHA3 171710Z 22012KT 34/21 A2999 RMK A01 T03430205  RH  044%=      5-min Rain = 0
KHA3 171711Z 22012KT 34/21 A2998 RMK A01 T03410208  RH  046%=      5-min Rain = 0
KHA3 171712Z 21015KT 34/21 A2999 RMK A01 T03440208  RH  045%=      5-min Rain = 0
KHA3 171713Z 19013KT 35/21 A2999 RMK A01 T03450208  RH  045%=      5-min Rain = 0
KHA3 171714Z 20012G17KT 34/21 A2999 RMK A01 T03440209  RH  045%=      5-min Rain = 0
KHA3 171715Z 21009KT 35/21 A2999 RMK A01 T03450210  RH  045%=      5-min Rain = 0
KHA3 171716Z 20011KT 35/21 A2999 RMK A01 T03490211  RH  045%=      5-min Rain = 0
KHA3 171717Z 18013G18KT 35/21 A2999 RMK A01 T03500209  RH  044%=      5-min Rain = 0
KHA3 171718Z 21017KT 35/21 A2999 RMK A01 T03500209  RH  044%=      5-min Rain = 0
KHA3 171719Z 21014KT 35/21 A2999 RMK A01 T03510205  RH  043%=      5-min Rain = 0
KHA3 171720Z 22014KT 35/21 A2999 RMK A01 T03500206  RH  043%=      5-min Rain = 0
KHA3 171721Z 20013KT 35/21 A2999 RMK A01 T03510205  RH  043%=      5-min Rain = 0
KHA3 171722Z 20013KT 35/21 A2999 RMK A01 T03510205  RH  043%=      5-min Rain = 0
KHA3 171723Z 19013KT 35/20 A2999 RMK A01 T03490204  RH  043%=      5-min Rain = 0
KHA3 171724Z 19012KT 35/21 A2999 RMK A01 T03470205  RH  043%=      5-min Rain = 0
KHA3 171725Z 19014KT 35/21 A2999 RMK A01 T03480205  RH  043%=      5-min Rain = 0
KHA3 171726Z 18012KT 35/21 A2999 RMK A01 T03490208  RH  044%=      5-min Rain = 0
KHA3 171727Z 17015KT 35/21 A2998 RMK A01 T03510205  RH  043%=      5-min Rain = 0
KHA3 171728Z 18016KT 35/21 A2998 RMK A01 T03500205  RH  043%=      5-min Rain = 0
KHA3 171729Z 18013G18KT 35/20 A2998 RMK A01 T03480204  RH  043%=      5-min Rain = 0
KHA3 171730Z 19013KT 35/21 A2998 RMK A01 T03470206  RH  044%=      5-min Rain = 0
KHA3 171731Z 21016KT 35/20 A2998 RMK A01 T03480203  RH  043%=      5-min Rain = 0
KHA3 171732Z 21017KT 35/20 A2998 RMK A01 T03510199  RH  041%=      5-min Rain = 0
KHA3 171733Z 21017KT 35/20 A2998 RMK A01 T03510199  RH  041%=      5-min Rain = 0
KHA3 171734Z 20016KT 35/20 A2998 RMK A01 T03500201  RH  042%=      5-min Rain = 0
KHA3 171735Z 20015KT 35/20 A2998 RMK A01 T03480202  RH  043%=      5-min Rain = 0
KHA3 171736Z 19015KT 35/20 A2998 RMK A01 T03480204  RH  043%=      5-min Rain = 0
KHA3 171737Z 18011KT 35/21 A2998 RMK A01 T03490206  RH  043%=      5-min Rain = 0
KHA3 171738Z 20008KT 35/21 A2998 RMK A01 T03520211  RH  044%=      5-min Rain = 0
KHA3 171739Z 21012KT 36/21 A2998 RMK A01 T03550207  RH  042%=      5-min Rain = 0
KHA3 171740Z 19013KT 35/21 A2998 RMK A01 T03540208  RH  043%=      5-min Rain = 0
KHA3 171741Z 20010KT 35/20 A2998 RMK A01 T03510204  RH  042%=      5-min Rain = 0
KHA3 171742Z 20009KT 35/21 A2998 RMK A01 T03460205  RH  044%=      5-min Rain = 0
KHA3 171743Z 21010KT 35/21 A2998 RMK A01 T03470206  RH  044%=      5-min Rain = 0
KHA3 171744Z 21014KT 35/21 A2998 RMK A01 T03510206  RH  043%=      5-min Rain = 0
KHA3 171745Z 19011KT 36/20 A2998 RMK A01 T03550202  RH  041%=      5-min Rain = 0
KHA3 171746Z 19013KT 36/20 A2998 RMK A01 T03550204  RH  041%=      5-min Rain = 0
KHA3 171747Z 18012KT 36/20 A2998 RMK A01 T03560204  RH  041%=      5-min Rain = 0
KHA3 171748Z 18014KT 36/20 A2998 RMK A01 T03550202  RH  041%=      5-min Rain = 0
KHA3 171749Z 19009KT 35/20 A2998 RMK A01 T03520203  RH  042%=      5-min Rain = 0
KHA3 171750Z 22014KT 35/20 A2998 RMK A01 T03540201  RH  041%=      5-min Rain = 0
KHA3 171751Z 22014KT 36/20 A2998 RMK A01 T03560199  RH  040%=      5-min Rain = 0
KHA3 171752Z 20013KT 36/20 A2998 RMK A01 T03580195  RH  038%=      5-min Rain = 0
KHA3 171753Z 17012KT 36/20 A2998 RMK A01 T03570200  RH  040%=      5-min Rain = 0
KHA3 171754Z 18011KT 36/20 A2998 RMK A01 T03570200  RH  040%=      5-min Rain = 0
KHA3 171755Z 19013KT 36/21 A2998 RMK A01 T03570205  RH  041%=      5-min Rain = 0
KHA3 171756Z 20012KT 36/21 A2998 RMK A01 T03570207  RH  042%=      5-min Rain = 0
KHA3 171757Z 21014KT 36/21 A2998 RMK A01 T03570205  RH  041%=      5-min Rain = 0
KHA3 171758Z 22008KT 35/21 A2998 RMK A01 T03540205  RH  042%=      5-min Rain = 0
KHA3 171759Z 21009KT 35/21 A2998 RMK A01 T03540207  RH  043%=      5-min Rain = 0
KHA3 171800Z 22009KT 36/21 A2998 RMK A01 T03560205  RH  041%=      5-min Rain = 0
KHA3 171801Z 21007KT 36/21 A2998 RMK A01 T03560208  RH  042%=      5-min Rain = 0
KHA3 171802Z 22005KT 36/21 A2998 RMK A01 T03570208  RH  042%=      5-min Rain = 0
KHA3 171803Z 21008KT 36/21 A2998 RMK A01 T03580208  RH  042%=      5-min Rain = 0
KHA3 171804Z 20013KT 36/21 A2998 RMK A01 T03600205  RH  041%=      5-min Rain = 0
KHA3 171805Z 20016G21KT 36/20 A2997 RMK A01 T03600204  RH  040%=      5-min Rain = 0
KHA3 171806Z 20019KT 36/20 A2997 RMK A01 T03580202  RH  040%=      5-min Rain = 0
KHA3 171807Z 20015KT 36/20 A2997 RMK A01 T03560201  RH  040%=      5-min Rain = 0
KHA3 171808Z 21011KT 36/20 A2998 RMK A01 T03550202  RH  041%=      5-min Rain = 0
KHA3 171809Z 22013KT 36/20 A2997 RMK A01 T03550201  RH  041%=      5-min Rain = 0
KHA3 171810Z 22012KT 36/20 A2997 RMK A01 T03550200  RH  041%=      5-min Rain = 0
KHA3 171811Z 20008KT 35/20 A2997 RMK A01 T03530201  RH  041%=      5-min Rain = 0
KHA3 171812Z 19007KT 35/20 A2997 RMK A01 T03520202  RH  041%=      5-min Rain = 0
KHA3 171813Z 20010KT 35/20 A2997 RMK A01 T03540203  RH  041%=      5-min Rain = 0
KHA3 171814Z 18015KT 36/20 A2997 RMK A01 T03560204  RH  041%=      5-min Rain = 0
KHA3 171815Z 17014KT 36/20 A2997 RMK A01 T03580202  RH  040%=      5-min Rain = 0
KHA3 171816Z 16014KT 36/20 A2997 RMK A01 T03570203  RH  041%=      5-min Rain = 0
KHA3 171817Z 17015KT 36/20 A2997 RMK A01 T03570202  RH  041%=      5-min Rain = 0
KHA3 171818Z 17018KT 36/20 A2997 RMK A01 T03580196  RH  039%=      5-min Rain = 0
KHA3 171819Z 17017KT 36/19 A2997 RMK A01 T03580192  RH  038%=      5-min Rain = 0
KHA3 171820Z 16015KT 36/19 A2997 RMK A01 T03590187  RH  037%=      5-min Rain = 0
KHA3 171821Z 15012KT 36/19 A2997 RMK A01 T03600187  RH  036%=      5-min Rain = 0
KHA3 171822Z 15011G16KT 36/19 A2997 RMK A01 T03610193  RH  037%=      5-min Rain = 0
KHA3 171823Z 17014KT 36/20 A2997 RMK A01 T03610199  RH  039%=      5-min Rain = 0
KHA3 171824Z 19015KT 36/20 A2997 RMK A01 T03620199  RH  039%=      5-min Rain = 0
KHA3 171825Z 17015KT 36/20 A2997 RMK A01 T03630200  RH  039%=      5-min Rain = 0
KHA3 171826Z 17012KT 37/20 A2997 RMK A01 T03660199  RH  038%=      5-min Rain = 0
KHA3 171827Z 16013KT 37/20 A2997 RMK A01 T03660200  RH  038%=      5-min Rain = 0
KHA3 171828Z 15013KT 37/20 A2997 RMK A01 T03660198  RH  038%=      5-min Rain = 0
KHA3 171829Z 17013KT 37/20 A2997 RMK A01 T03650199  RH  038%=      5-min Rain = 0
KHA3 171830Z 18015KT 36/20 A2997 RMK A01 T03640199  RH  038%=      5-min Rain = 0
KHA3 171831Z 19012KT 36/20 A2997 RMK A01 T03640201  RH  039%=      5-min Rain = 0
KHA3 171832Z 20012KT 37/20 A2997 RMK A01 T03650197  RH  038%=      5-min Rain = 0
KHA3 171833Z 19011KT 36/20 A2997 RMK A01 T03640196  RH  037%=      5-min Rain = 0
KHA3 171834Z 20013KT 37/19 A2996 RMK A01 T03650193  RH  037%=      5-min Rain = 0
KHA3 171835Z 19012KT 37/20 A2997 RMK A01 T03660197  RH  037%=      5-min Rain = 0
KHA3 171836Z 22009KT 37/20 A2996 RMK A01 T03680198  RH  037%=      5-min Rain = 0
KHA3 171837Z 20012KT 37/20 A2996 RMK A01 T03700197  RH  037%=      5-min Rain = 0
KHA3 171838Z 20010KT 37/20 A2996 RMK A01 T03680197  RH  037%=      5-min Rain = 0
KHA3 171839Z 18012KT 37/20 A2996 RMK A01 T03650197  RH  038%=      5-min Rain = 0
KHA3 171840Z 17018G23KT 37/19 A2996 RMK A01 T03650194  RH  037%=      5-min Rain = 0
KHA3 171841Z 18019G25KT 37/19 A2996 RMK A01 T03660193  RH  036%=      5-min Rain = 0
KHA3 171842Z 18015KT 37/19 A2996 RMK A01 T03650191  RH  036%=      5-min Rain = 0
KHA3 171843Z 18015G20KT 36/19 A2996 RMK A01 T03640194  RH  037%=      5-min Rain = 0
KHA3 171844Z 18015KT 36/19 A2996 RMK A01 T03640194  RH  037%=      5-min Rain = 0
KHA3 171845Z 17018KT 37/20 A2996 RMK A01 T03660195  RH  037%=      5-min Rain = 0
KHA3 171846Z 17018KT 37/19 A2996 RMK A01 T03660192  RH  036%=      5-min Rain = 0
KHA3 171847Z 17014KT 36/19 A2996 RMK A01 T03640190  RH  036%=      5-min Rain = 0
KHA3 171848Z 17017KT 36/19 A2996 RMK A01 T03620191  RH  037%=      5-min Rain = 0
KHA3 171849Z 16016KT 36/19 A2996 RMK A01 T03640190  RH  036%=      5-min Rain = 0
KHA3 171850Z 17016KT 36/19 A2996 RMK A01 T03640191  RH  037%=      5-min Rain = 0
KHA3 171851Z 17016KT 36/19 A2996 RMK A01 T03630192  RH  037%=      5-min Rain = 0
KHA3 171852Z 16015KT 36/20 A2996 RMK A01 T03640195  RH  037%=      5-min Rain = 0
KHA3 171853Z 18015KT 37/19 A2996 RMK A01 T03650193  RH  037%=      5-min Rain = 0
KHA3 171854Z 17013KT 37/20 A2996 RMK A01 T03660195  RH  037%=      5-min Rain = 0
KHA3 171855Z 18013KT 37/19 A2996 RMK A01 T03660194  RH  037%=      5-min Rain = 0
KHA3 171856Z 18010KT 37/20 A2996 RMK A01 T03660195  RH  037%=      5-min Rain = 0
KHA3 171857Z 17016G23KT 37/20 A2995 RMK A01 T03650195  RH  037%=      5-min Rain = 0
KHA3 171858Z 18018G23KT 37/19 A2996 RMK A01 T03660191  RH  036%=      5-min Rain = 0
KHA3 171859Z 17014G19KT 37/19 A2996 RMK A01 T03650189  RH  036%=      5-min Rain = 0
KHA3 171900Z 16013KT 36/19 A2996 RMK A01 T03630190  RH  036%=      5-min Rain = 0
KHA3 171901Z 15013KT 36/19 A2995 RMK A01 T03630192  RH  037%=      5-min Rain = 0
KHA3 171902Z 15011KT 37/19 A2996 RMK A01 T03660192  RH  036%=      5-min Rain = 0
KHA3 171903Z 18010KT 37/20 A2996 RMK A01 T03680195  RH  036%=      5-min Rain = 0
KHA3 171904Z 19011KT 37/19 A2996 RMK A01 T03690190  RH  035%=      5-min Rain = 0
KHA3 171905Z 20011KT 37/19 A2996 RMK A01 T03680191  RH  036%=      5-min Rain = 0
KHA3 171906Z 19014KT 37/19 A2995 RMK A01 T03680193  RH  036%=      5-min Rain = 0
KHA3 171907Z 18015KT 37/19 A2995 RMK A01 T03680192  RH  036%=      5-min Rain = 0
KHA3 171908Z 19018G28KT 37/19 A2995 RMK A01 T03680192  RH  036%=      5-min Rain = 0
KHA3 171909Z 17021KT 37/19 A2995 RMK A01 T03680187  RH  035%=      5-min Rain = 0
KHA3 171910Z 17016KT 37/19 A2995 RMK A01 T03670190  RH  036%=      5-min Rain = 0
KHA3 171911Z 17015KT 37/19 A2995 RMK A01 T03690190  RH  035%=      5-min Rain = 0
KHA3 171912Z 17016KT 37/19 A2995 RMK A01 T03680189  RH  035%=      5-min Rain = 0
KHA3 171913Z 17018G23KT 37/19 A2995 RMK A01 T03670193  RH  036%=      5-min Rain = 0
KHA3 171914Z 18016KT 37/19 A2995 RMK A01 T03670189  RH  035%=      5-min Rain = 0
KHA3 171915Z 17015KT 37/20 A2995 RMK A01 T03670197  RH  037%=      5-min Rain = 0
KHA3 171916Z 18013KT 37/19 A2995 RMK A01 T03700194  RH  036%=      5-min Rain = 0
KHA3 171917Z 16013KT 37/20 A2995 RMK A01 T03700195  RH  036%=      5-min Rain = 0
KHA3 171918Z 15013KT 37/19 A2995 RMK A01 T03690189  RH  035%=      5-min Rain = 0
KHA3 171919Z 15011G17KT 37/19 A2995 RMK A01 T03670192  RH  036%=      5-min Rain = 0
KHA3 171920Z 16014KT 37/19 A2995 RMK A01 T03690194  RH  036%=      5-min Rain = 0
KHA3 171921Z 18018KT 38/19 A2995 RMK A01 T03750193  RH  035%=      5-min Rain = 0
KHA3 171922Z 17018KT 38/19 A2995 RMK A01 T03750189  RH  034%=      5-min Rain = 0
KHA3 171923Z 17015KT 37/19 A2995 RMK A01 T03700188  RH  035%=      5-min Rain = 0
KHA3 171924Z 18013KT 37/19 A2995 RMK A01 T03680190  RH  035%=      5-min Rain = 0
KHA3 171925Z 16015KT 37/19 A2995 RMK A01 T03680190  RH  035%=      5-min Rain = 0
KHA3 171926Z 17013KT 37/19 A2995 RMK A01 T03680189  RH  035%=      5-min Rain = 0
KHA3 171927Z 18011KT 37/19 A2995 RMK A01 T03700190  RH  035%=      5-min Rain = 0
KHA3 171928Z 20015KT 37/19 A2995 RMK A01 T03730190  RH  034%=      5-min Rain = 0
KHA3 171929Z 18017KT 37/19 A2995 RMK A01 T03720186  RH  034%=      5-min Rain = 0
KHA3 171930Z 18018KT 37/19 A2995 RMK A01 T03700187  RH  034%=      5-min Rain = 0
KHA3 171931Z 17017KT 37/19 A2995 RMK A01 T03690188  RH  035%=      5-min Rain = 0
KHA3 171932Z 18016KT 37/19 A2995 RMK A01 T03690188  RH  035%=      5-min Rain = 0
KHA3 171933Z 18016KT 37/18 A2995 RMK A01 T03690184  RH  034%=      5-min Rain = 0
KHA3 171934Z 19011KT 37/18 A2995 RMK A01 T03660183  RH  034%=      5-min Rain = 0
KHA3 171935Z 19011KT 36/19 A2995 RMK A01 T03640185  RH  035%=      5-min Rain = 0
KHA3 171936Z 19015G23KT 37/19 A2995 RMK A01 T03670191  RH  036%=      5-min Rain = 0
KHA3 171937Z 18015KT 37/19 A2995 RMK A01 T03710189  RH  034%=      5-min Rain = 0
KHA3 171938Z 17014KT 37/19 A2995 RMK A01 T03700191  RH  035%=      5-min Rain = 0
KHA3 171939Z 19014KT 37/19 A2995 RMK A01 T03710189  RH  035%=      5-min Rain = 0
KHA3 171940Z 17016KT 37/19 A2995 RMK A01 T03710190  RH  035%=      5-min Rain = 0
KHA3 171941Z 18015KT 37/18 A2995 RMK A01 T03720184  RH  033%=      5-min Rain = 0
KHA3 171942Z 18014G20KT 37/18 A2995 RMK A01 T03660183  RH  034%=      5-min Rain = 0
KHA3 171943Z 17015KT 36/19 A2994 RMK A01 T03640185  RH  035%=      5-min Rain = 0
KHA3 171944Z 16013KT 37/19 A2994 RMK A01 T03660186  RH  035%=      5-min Rain = 0
KHA3 171945Z 17010KT 37/19 A2994 RMK A01 T03660188  RH  035%=      5-min Rain = 0
KHA3 171946Z 17012KT 37/19 A2994 RMK A01 T03680191  RH  036%=      5-min Rain = 0
KHA3 171947Z 17012KT 37/19 A2994 RMK A01 T03690193  RH  036%=      5-min Rain = 0
KHA3 171948Z 18014G20KT 37/19 A2994 RMK A01 T03680192  RH  036%=      5-min Rain = 0
KHA3 171949Z 17016KT 37/19 A2994 RMK A01 T03680192  RH  036%=      5-min Rain = 0
KHA3 171950Z 19017KT 37/19 A2994 RMK A01 T03680190  RH  035%=      5-min Rain = 0
KHA3 171951Z 18018KT 37/19 A2994 RMK A01 T03690190  RH  035%=      5-min Rain = 0
KHA3 171952Z 18012KT 37/19 A2994 RMK A01 T03690188  RH  035%=      5-min Rain = 0
KHA3 171953Z 16012KT 37/19 A2994 RMK A01 T03700191  RH  035%=      5-min Rain = 0
KHA3 171954Z 16015G22KT 37/19 A2994 RMK A01 T03700189  RH  035%=      5-min Rain = 0
KHA3 171955Z 19019G24KT 37/19 A2994 RMK A01 T03720192  RH  035%=      5-min Rain = 0
KHA3 171956Z 19019KT 37/19 A2994 RMK A01 T03740190  RH  034%=      5-min Rain = 0
KHA3 171957Z 18016KT 37/19 A2994 RMK A01 T03710186  RH  034%=      5-min Rain = 0
KHA3 171958Z 17014KT 37/19 A2994 RMK A01 T03710189  RH  035%=      5-min Rain = 0
KHA3 171959Z 18016KT 37/19 A2994 RMK A01 T03720186  RH  034%=      5-min Rain = 0
KHA3 172000Z 18016KT 37/19 A2994 RMK A01 T03720187  RH  034%=      5-min Rain = 0
KHA3 172001Z 18011G17KT 37/19 A2994 RMK A01 T03710186  RH  034%=      5-min Rain = 0
KHA3 172002Z 18018KT 37/19 A2994 RMK A01 T03720189  RH  034%=      5-min Rain = 0
KHA3 172003Z 18018KT 37/19 A2994 RMK A01 T03730188  RH  034%=      5-min Rain = 0
KHA3 172004Z 17015KT 37/19 A2994 RMK A01 T03720189  RH  035%=      5-min Rain = 0
KHA3 172005Z 17014KT 37/19 A2994 RMK A01 T03710188  RH  034%=      5-min Rain = 0
KHA3 172006Z 17016KT 37/19 A2994 RMK A01 T03710190  RH  035%=      5-min Rain = 0
KHA3 172007Z 17013KT 37/19 A2994 RMK A01 T03710187  RH  034%=      5-min Rain = 0
KHA3 172008Z 17014KT 37/19 A2993 RMK A01 T03710188  RH  034%=      5-min Rain = 0
KHA3 172009Z 17013KT 37/19 A2993 RMK A01 T03730186  RH  033%=      5-min Rain = 0
KHA3 172010Z 18011KT 37/18 A2993 RMK A01 T03730182  RH  033%=      5-min Rain = 0
KHA3 172011Z 17016KT 37/19 A2993 RMK A01 T03700186  RH  034%=      5-min Rain = 0
KHA3 172012Z 17013G18KT 37/19 A2993 RMK A01 T03710188  RH  034%=      5-min Rain = 0
KHA3 172013Z 18014KT 37/19 A2993 RMK A01 T03710190  RH  035%=      5-min Rain = 0
KHA3 172014Z 17012KT 37/19 A2993 RMK A01 T03700192  RH  035%=      5-min Rain = 0
KHA3 172015Z 16013KT 37/19 A2993 RMK A01 T03710193  RH  035%=      5-min Rain = 0
KHA3 172016Z 15012KT 37/19 A2993 RMK A01 T03710193  RH  036%=      5-min Rain = 0
KHA3 172017Z 15011KT 37/19 A2993 RMK A01 T03700192  RH  035%=      5-min Rain = 0
KHA3 172018Z 15014KT 37/19 A2993 RMK A01 T03700193  RH  035%=      5-min Rain = 0
KHA3 172019Z 15014KT 37/19 A2993 RMK A01 T03710191  RH  035%=      5-min Rain = 0
KHA3 172020Z 18013KT 37/19 A2993 RMK A01 T03720192  RH  035%=      5-min Rain = 0
KHA3 172021Z 21015KT 37/18 A2993 RMK A01 T03740184  RH  033%=      5-min Rain = 0
KHA3 172022Z 20014KT 37/18 A2993 RMK A01 T03740183  RH  033%=      5-min Rain = 0
KHA3 172023Z 18015KT 37/19 A2993 RMK A01 T03740188  RH  034%=      5-min Rain = 0
KHA3 172024Z 18015KT 37/19 A2993 RMK A01 T03740187  RH  034%=      5-min Rain = 0
KHA3 172025Z 18011G17KT 37/19 A2993 RMK A01 T03730187  RH  034%=      5-min Rain = 0
KHA3 172026Z 18011KT 37/19 A2993 RMK A01 T03720185  RH  034%=      5-min Rain = 0
KHA3 172027Z 18013G18KT 37/19 A2993 RMK A01 T03710187  RH  034%=      5-min Rain = 0
KHA3 172028Z 19014KT 37/19 A2993 RMK A01 T03720191  RH  035%=      5-min Rain = 0
KHA3 172029Z 19015KT 37/19 A2993 RMK A01 T03740192  RH  035%=      5-min Rain = 0
KHA3 172030Z 19014KT 38/19 A2993 RMK A01 T03760187  RH  033%=      5-min Rain = 0
KHA3 172031Z 19012KT 38/19 A2993 RMK A01 T03760188  RH  033%=      5-min Rain = 0
KHA3 172032Z 21012KT 38/19 A2993 RMK A01 T03780189  RH  033%=      5-min Rain = 0
KHA3 172033Z 20011KT 38/19 A2993 RMK A01 T03810188  RH  033%=      5-min Rain = 0
KHA3 172034Z 16014KT 38/19 A2993 RMK A01 T03800191  RH  033%=      5-min Rain = 0
KHA3 172035Z 17014KT 38/19 A2993 RMK A01 T03780190  RH  033%=      5-min Rain = 0
KHA3 172036Z 17015KT 38/19 A2992 RMK A01 T03750188  RH  034%=      5-min Rain = 0
KHA3 172037Z 18013KT 37/19 A2992 RMK A01 T03720189  RH  034%=      5-min Rain = 0
KHA3 172038Z 18012KT 37/19 A2992 RMK A01 T03720188  RH  034%=      5-min Rain = 0
KHA3 172039Z 18010KT 37/19 A2992 RMK A01 T03710188  RH  034%=      5-min Rain = 0
KHA3 172040Z 17020KT 37/19 A2992 RMK A01 T03710189  RH  035%=      5-min Rain = 0
KHA3 172041Z 16017KT 37/18 A2992 RMK A01 T03710183  RH  033%=      5-min Rain = 0
KHA3 172042Z 16014KT 37/19 A2992 RMK A01 T03700185  RH  034%=      5-min Rain = 0
KHA3 172043Z 15015KT 37/19 A2992 RMK A01 T03700186  RH  034%=      5-min Rain = 0
KHA3 172044Z 15012KT 37/19 A2992 RMK A01 T03730185  RH  033%=      5-min Rain = 0
KHA3 172045Z 16015G20KT 37/18 A2992 RMK A01 T03730184  RH  033%=      5-min Rain = 0
KHA3 172046Z 16014KT 37/18 A2992 RMK A01 T03740183  RH  033%=      5-min Rain = 0
KHA3 172047Z 18015KT 38/18 A2992 RMK A01 T03750184  RH  033%=      5-min Rain = 0
KHA3 172048Z 19012KT 38/18 A2992 RMK A01 T03760183  RH  033%=      5-min Rain = 0
KHA3 172049Z 16014KT 37/19 A2992 RMK A01 T03740185  RH  033%=      5-min Rain = 0
KHA3 172050Z 18017KT 37/19 A2992 RMK A01 T03740185  RH  033%=      5-min Rain = 0
KHA3 172051Z 16017KT 37/19 A2992 RMK A01 T03740185  RH  033%=      5-min Rain = 0
KHA3 172052Z 15014KT 37/19 A2992 RMK A01 T03730185  RH  033%=      5-min Rain = 0
KHA3 172053Z 15017KT 37/18 A2992 RMK A01 T03690181  RH  033%=      5-min Rain = 0
KHA3 172054Z 17014KT 37/18 A2992 RMK A01 T03660179  RH  033%=      5-min Rain = 0
KHA3 172055Z 16012KT 37/18 A2992 RMK A01 T03670182  RH  034%=      5-min Rain = 0
KHA3 172056Z 15014KT 37/18 A2992 RMK A01 T03710183  RH  033%=      5-min Rain = 0
KHA3 172057Z 15012KT 37/18 A2992 RMK A01 T03710181  RH  033%=      5-min Rain = 0
KHA3 172058Z 18011KT 37/18 A2992 RMK A01 T03720184  RH  033%=      5-min Rain = 0
KHA3 172059Z 18010KT 37/19 A2992 RMK A01 T03740187  RH  033%=      5-min Rain = 0
KHA3 172100Z 19008KT 38/19 A2992 RMK A01 T03770188  RH  033%=      5-min Rain = 0
KHA3 172101Z 17014KT 38/19 A2991 RMK A01 T03800186  RH  032%=      5-min Rain = 0
KHA3 172102Z 17018KT 38/18 A2991 RMK A01 T03800184  RH  032%=      5-min Rain = 0
KHA3 172103Z 17015KT 38/18 A2991 RMK A01 T03760180  RH  032%=      5-min Rain = 0
KHA3 172104Z 18010KT 37/18 A2991 RMK A01 T03730182  RH  033%=      5-min Rain = 0
KHA3 172105Z 17012G17KT 38/18 A2991 RMK A01 T03750184  RH  033%=      5-min Rain = 0
KHA3 172106Z 19015KT 38/18 A2991 RMK A01 T03760182  RH  032%=      5-min Rain = 0
KHA3 172107Z 20014KT 38/18 A2991 RMK A01 T03770179  RH  031%=      5-min Rain = 0
KHA3 172108Z 20018KT 38/18 A2991 RMK A01 T03780177  RH  031%=      5-min Rain = 0
KHA3 172109Z 19016KT 38/18 A2991 RMK A01 T03760176  RH  031%=      5-min Rain = 0
KHA3 172110Z 18016KT 38/18 A2991 RMK A01 T03750177  RH  031%=      5-min Rain = 0
KHA3 172111Z 17011KT 37/18 A2991 RMK A01 T03740178  RH  032%=      5-min Rain = 0
KHA3 172112Z 17013KT 37/18 A2991 RMK A01 T03730179  RH  032%=      5-min Rain = 0
KHA3 172113Z 18014KT 37/18 A2991 RMK A01 T03730179  RH  032%=      5-min Rain = 0
KHA3 172114Z 17010KT 37/18 A2991 RMK A01 T03730181  RH  032%=      5-min Rain = 0
KHA3 172115Z 16014KT 37/18 A2991 RMK A01 T03740183  RH  033%=      5-min Rain = 0
KHA3 172116Z 16015KT 38/18 A2991 RMK A01 T03750184  RH  033%=      5-min Rain = 0
KHA3 172117Z 17013KT 38/18 A2991 RMK A01 T03760184  RH  033%=      5-min Rain = 0
KHA3 172118Z 17011KT 37/18 A2991 RMK A01 T03740183  RH  033%=      5-min Rain = 0
KHA3 172119Z 16012KT 37/18 A2991 RMK A01 T03730184  RH  033%=      5-min Rain = 0
KHA3 172120Z 16012KT 37/19 A2991 RMK A01 T03730185  RH  033%=      5-min Rain = 0
KHA3 172121Z 15012G18KT 37/19 A2991 RMK A01 T03740186  RH  033%=      5-min Rain = 0
KHA3 172122Z 15015KT 38/18 A2991 RMK A01 T03760184  RH  033%=      5-min Rain = 0
KHA3 172123Z 15014KT 38/19 A2991 RMK A01 T03760186  RH  033%=      5-min Rain = 0
KHA3 172124Z 18014KT 38/19 A2991 RMK A01 T03760186  RH  033%=      5-min Rain = 0
KHA3 172125Z 18012KT 38/18 A2991 RMK A01 T03750181  RH  032%=      5-min Rain = 0
KHA3 172126Z 17017KT 37/18 A2991 RMK A01 T03740184  RH  033%=      5-min Rain = 0
KHA3 172127Z 17016KT 37/18 A2991 RMK A01 T03740183  RH  033%=      5-min Rain = 0
KHA3 172128Z 17014KT 37/18 A2991 RMK A01 T03720183  RH  033%=      5-min Rain = 0
KHA3 172129Z 17010KT 37/18 A2991 RMK A01 T03710182  RH  033%=      5-min Rain = 0
KHA3 172130Z 17011KT 37/19 A2991 RMK A01 T03710185  RH  034%=      5-min Rain = 0
KHA3 172131Z 15009KT 37/19 A2991 RMK A01 T03740187  RH  034%=      5-min Rain = 0
KHA3 172132Z 14008KT 38/19 A2991 RMK A01 T03760186  RH  033%=      5-min Rain = 0
KHA3 172133Z 19017KT 38/19 A2991 RMK A01 T03780187  RH  033%=      5-min Rain = 0
KHA3 172134Z 20015KT 38/18 A2991 RMK A01 T03790184  RH  032%=      5-min Rain = 0
KHA3 172135Z 19013KT 38/18 A2991 RMK A01 T03780183  RH  032%=      5-min Rain = 0
KHA3 172136Z 18016KT 38/18 A2991 RMK A01 T03770183  RH  032%=      5-min Rain = 0
KHA3 172137Z 16016KT 38/18 A2991 RMK A01 T03760180  RH  032%=      5-min Rain = 0
KHA3 172138Z 18015KT 37/18 A2991 RMK A01 T03740182  RH  032%=      5-min Rain = 0
KHA3 172139Z 18011KT 38/18 A2991 RMK A01 T03750183  RH  033%=      5-min Rain = 0
KHA3 172140Z 18010KT 38/18 A299 RMK A01 T03770184  RH  032%=      5-min Rain = 0
KHA3 172141Z 18017KT 38/18 A299 RMK A01 T03770183  RH  032%=      5-min Rain = 0
KHA3 172142Z 17017KT 38/18 A299 RMK A01 T03770181  RH  032%=      5-min Rain = 0
KHA3 172143Z 16013KT 38/18 A299 RMK A01 T03760180  RH  032%=      5-min Rain = 0
KHA3 172144Z 16013KT 38/18 A299 RMK A01 T03760181  RH  032%=      5-min Rain = 0
KHA3 172145Z 15015KT 38/18 A299 RMK A01 T03760182  RH  032%=      5-min Rain = 0
KHA3 172146Z 16015KT 38/18 A299 RMK A01 T03750182  RH  032%=      5-min Rain = 0
KHA3 172147Z 15017KT 37/18 A299 RMK A01 T03740182  RH  033%=      5-min Rain = 0
KHA3 172148Z 15015KT 37/18 A299 RMK A01 T03740181  RH  032%=      5-min Rain = 0
KHA3 172149Z 16015KT 37/18 A299 RMK A01 T03730181  RH  033%=      5-min Rain = 0
KHA3 172150Z 17013KT 37/18 A299 RMK A01 T03730181  RH  033%=      5-min Rain = 0
KHA3 172151Z 16013KT 37/18 A299 RMK A01 T03730183  RH  033%=      5-min Rain = 0
KHA3 172152Z 17014KT 37/19 A299 RMK A01 T03730187  RH  034%=      5-min Rain = 0
KHA3 172153Z 17017KT 38/19 A299 RMK A01 T03760187  RH  033%=      5-min Rain = 0
KHA3 172154Z 18019KT 38/18 A299 RMK A01 T03760183  RH  032%=      5-min Rain = 0
KHA3 172155Z 17016KT 37/18 A299 RMK A01 T03730183  RH  033%=      5-min Rain = 0
KHA3 172156Z 16018KT 37/18 A299 RMK A01 T03720183  RH  033%=      5-min Rain = 0
KHA3 172157Z 16016KT 37/18 A299 RMK A01 T03710183  RH  033%=      5-min Rain = 0
KHA3 172158Z 16015KT 37/19 A299 RMK A01 T03720187  RH  034%=      5-min Rain = 0
KHA3 172159Z 16016KT 37/18 A299 RMK A01 T03730183  RH  033%=      5-min Rain = 0
KHA3 172200Z 16013KT 37/18 A299 RMK A01 T03710184  RH  033%=      5-min Rain = 0
KHA3 172201Z 16010KT 37/18 A299 RMK A01 T03710182  RH  033%=      5-min Rain = 0
KHA3 172202Z 16012KT 37/18 A299 RMK A01 T03700184  RH  034%=      5-min Rain = 0
KHA3 172203Z 15013KT 37/19 A299 RMK A01 T03710186  RH  034%=      5-min Rain = 0
KHA3 172204Z 15012KT 37/18 A299 RMK A01 T03720184  RH  033%=      5-min Rain = 0
KHA3 172205Z 15015KT 37/18 A299 RMK A01 T03730183  RH  033%=      5-min Rain = 0
KHA3 172206Z 15014KT 37/18 A299 RMK A01 T03730181  RH  033%=      5-min Rain = 0
KHA3 172207Z 16015G20KT 37/18 A299 RMK A01 T03720182  RH  033%=      5-min Rain = 0
KHA3 172208Z 15020KT 37/18 A299 RMK A01 T03720181  RH  033%=      5-min Rain = 0
KHA3 172209Z 16018KT 37/18 A299 RMK A01 T03710178  RH  032%=      5-min Rain = 0
KHA3 172210Z 16015KT 37/18 A299 RMK A01 T03700178  RH  033%=      5-min Rain = 0
KHA3 172211Z 15017KT 37/18 A299 RMK A01 T03690179  RH  033%=      5-min Rain = 0
KHA3 172212Z 15018KT 37/18 A299 RMK A01 T03690177  RH  032%=      5-min Rain = 0
KHA3 172213Z 16016KT 37/18 A299 RMK A01 T03690176  RH  032%=      5-min Rain = 0
KHA3 172214Z 15015KT 37/18 A299 RMK A01 T03690176  RH  032%=      5-min Rain = 0
KHA3 172215Z 15011KT 37/18 A299 RMK A01 T03680180  RH  033%=      5-min Rain = 0
KHA3 172216Z 16011KT 37/18 A299 RMK A01 T03700177  RH  032%=      5-min Rain = 0
KHA3 172217Z 14011G19KT 37/18 A299 RMK A01 T03700179  RH  033%=      5-min Rain = 0
KHA3 172218Z 14016KT 37/18 A2989 RMK A01 T03710176  RH  032%=      5-min Rain = 0
KHA3 172219Z 15016KT 37/18 A2989 RMK A01 T03700177  RH  032%=      5-min Rain = 0
KHA3 172220Z 15016KT 37/18 A2989 RMK A01 T03700178  RH  032%=      5-min Rain = 0
KHA3 172221Z 16016KT 37/18 A2989 RMK A01 T03710177  RH  032%=      5-min Rain = 0
KHA3 172222Z 16017KT 37/17 A2989 RMK A01 T03700174  RH  032%=      5-min Rain = 0
KHA3 172223Z 15014KT 37/17 A2989 RMK A01 T03680173  RH  032%=      5-min Rain = 0
KHA3 172224Z 14016KT 37/18 A2989 RMK A01 T03670175  RH  032%=      5-min Rain = 0
KHA3 172225Z 13018KT 37/18 A2989 RMK A01 T03680176  RH  032%=      5-min Rain = 0
KHA3 172226Z 15019KT 37/17 A2989 RMK A01 T03690174  RH  032%=      5-min Rain = 0
KHA3 172227Z 15016KT 37/18 A2989 RMK A01 T03690175  RH  032%=      5-min Rain = 0
KHA3 172228Z 17015KT 37/18 A2989 RMK A01 T03700176  RH  032%=      5-min Rain = 0
KHA3 172229Z 15013KT 37/18 A2989 RMK A01 T03710176  RH  032%=      5-min Rain = 0
KHA3 172230Z 14016KT 37/18 A2989 RMK A01 T03730177  RH  032%=      5-min Rain = 0
KHA3 172231Z 14014KT 37/18 A2989 RMK A01 T03730176  RH  031%=      5-min Rain = 0
KHA3 172232Z 15013KT 37/18 A2989 RMK A01 T03740176  RH  031%=      5-min Rain = 0
KHA3 172233Z 16016KT 37/17 A2989 RMK A01 T03730174  RH  031%=      5-min Rain = 0
KHA3 172234Z 17018KT 37/18 A2989 RMK A01 T03720175  RH  031%=      5-min Rain = 0
KHA3 172235Z 17014KT 37/18 A2989 RMK A01 T03720175  RH  031%=      5-min Rain = 0
KHA3 172236Z 16018KT 37/17 A2989 RMK A01 T03710174  RH  031%=      5-min Rain = 0
KHA3 172237Z 17018KT 37/18 A2989 RMK A01 T03710175  RH  032%=      5-min Rain = 0
KHA3 172238Z 15014KT 37/18 A2989 RMK A01 T03710176  RH  032%=      5-min Rain = 0
KHA3 172239Z 16014KT 37/17 A2989 RMK A01 T03710174  RH  031%=      5-min Rain = 0
KHA3 172240Z 16012KT 37/18 A2989 RMK A01 T03710175  RH  032%=      5-min Rain = 0
KHA3 172241Z 15012G19KT 37/18 A2989 RMK A01 T03720178  RH  032%=      5-min Rain = 0
KHA3 172242Z 14013KT 37/17 A2989 RMK A01 T03720174  RH  031%=      5-min Rain = 0
KHA3 172243Z 15015KT 37/18 A2989 RMK A01 T03710176  RH  032%=      5-min Rain = 0
KHA3 172244Z 15013G18KT 37/18 A2989 RMK A01 T03710178  RH  032%=      5-min Rain = 0
KHA3 172245Z 16014KT 37/18 A2989 RMK A01 T03730179  RH  032%=      5-min Rain = 0
KHA3 172246Z 17013KT 38/18 A2989 RMK A01 T03750177  RH  031%=      5-min Rain = 0
KHA3 172247Z 15013KT 38/18 A2989 RMK A01 T03750175  RH  031%=      5-min Rain = 0
KHA3 172248Z 16014KT 38/18 A2989 RMK A01 T03750175  RH  031%=      5-min Rain = 0
KHA3 172249Z 16015KT 37/17 A2989 RMK A01 T03740172  RH  031%=      5-min Rain = 0
KHA3 172250Z 16015KT 37/17 A2989 RMK A01 T03720172  RH  031%=      5-min Rain = 0
KHA3 172251Z 17013KT 37/17 A2989 RMK A01 T03710174  RH  031%=      5-min Rain = 0
KHA3 172252Z 18018KT 37/17 A2989 RMK A01 T03710173  RH  031%=      5-min Rain = 0
KHA3 172253Z 18015KT 37/17 A2989 RMK A01 T03710171  RH  031%=      5-min Rain = 0
KHA3 172254Z 16014KT 37/17 A2989 RMK A01 T03690171  RH  031%=      5-min Rain = 0
KHA3 172255Z 17013KT 37/17 A2989 RMK A01 T03690172  RH  031%=      5-min Rain = 0
KHA3 172256Z 17013KT 37/17 A2989 RMK A01 T03680171  RH  031%=      5-min Rain = 0
KHA3 172257Z 17014KT 37/17 A2989 RMK A01 T03670171  RH  031%=      5-min Rain = 0
KHA3 172258Z 17014KT 37/17 A2989 RMK A01 T03680173  RH  032%=      5-min Rain = 0
KHA3 172259Z 16008KT 37/18 A2989 RMK A01 T03690176  RH  032%=      5-min Rain = 0
KHA3 172300Z 17010KT 37/18 A2989 RMK A01 T03720179  RH  032%=      5-min Rain = 0
KHA3 172301Z 17011KT 37/18 A2989 RMK A01 T03730177  RH  032%=      5-min Rain = 0
KHA3 172302Z 16014KT 37/18 A2989 RMK A01 T03730178  RH  032%=      5-min Rain = 0
KHA3 172303Z 17015KT 37/18 A2989 RMK A01 T03740178  RH  032%=      5-min Rain = 0
KHA3 172304Z 17013KT 37/18 A2989 RMK A01 T03720175  RH  031%=      5-min Rain = 0
KHA3 172305Z 16011KT 37/18 A2989 RMK A01 T03700175  RH  032%=      5-min Rain = 0
KHA3 172306Z 16009KT 37/18 A2989 RMK A01 T03700176  RH  032%=      5-min Rain = 0
KHA3 172307Z 15013KT 37/18 A2989 RMK A01 T03710179  RH  032%=      5-min Rain = 0
KHA3 172308Z 15014G19KT 37/18 A2989 RMK A01 T03730176  RH  032%=      5-min Rain = 0
KHA3 172309Z 15013KT 37/18 A2989 RMK A01 T03720176  RH  032%=      5-min Rain = 0
KHA3 172310Z 15012KT 37/18 A2989 RMK A01 T03710176  RH  032%=      5-min Rain = 0
KHA3 172311Z 16014KT 37/18 A2989 RMK A01 T03700176  RH  032%=      5-min Rain = 0
KHA3 172312Z 16012KT 37/18 A2988 RMK A01 T03690176  RH  032%=      5-min Rain = 0
KHA3 172313Z 13011KT 37/18 A2988 RMK A01 T03690175  RH  032%=      5-min Rain = 0
KHA3 172314Z 14015KT 37/18 A2988 RMK A01 T03680175  RH  032%=      5-min Rain = 0
KHA3 172315Z 15018KT 37/18 A2988 RMK A01 T03680177  RH  033%=      5-min Rain = 0
KHA3 172316Z 16018KT 37/18 A2989 RMK A01 T03680177  RH  033%=      5-min Rain = 0
KHA3 172317Z 17015KT 37/18 A2989 RMK A01 T03680179  RH  033%=      5-min Rain = 0
KHA3 172318Z 18015KT 37/18 A2988 RMK A01 T03680178  RH  033%=      5-min Rain = 0
KHA3 172319Z 18015KT 37/18 A2988 RMK A01 T03680177  RH  033%=      5-min Rain = 0
KHA3 172320Z 18016KT 37/18 A2988 RMK A01 T03670176  RH  033%=      5-min Rain = 0
KHA3 172321Z 16016KT 37/18 A2988 RMK A01 T03660176  RH  033%=      5-min Rain = 0
KHA3 172322Z 16014KT 37/18 A2988 RMK A01 T03660176  RH  033%=      5-min Rain = 0
KHA3 172323Z 15014KT 37/18 A2988 RMK A01 T03650176  RH  033%=      5-min Rain = 0
KHA3 172324Z 14016KT 37/18 A2988 RMK A01 T03660177  RH  033%=      5-min Rain = 0
KHA3 172325Z 15013KT 37/18 A2988 RMK A01 T03660178  RH  033%=      5-min Rain = 0
KHA3 172326Z 15015KT 37/18 A2988 RMK A01 T03670179  RH  033%=      5-min Rain = 0
KHA3 172327Z 15017KT 37/18 A2988 RMK A01 T03670178  RH  033%=      5-min Rain = 0
KHA3 172328Z 16017KT 37/18 A2988 RMK A01 T03670177  RH  033%=      5-min Rain = 0
KHA3 172329Z 15015KT 37/18 A2988 RMK A01 T03660175  RH  033%=      5-min Rain = 0
KHA3 172330Z 16017KT 37/18 A2988 RMK A01 T03650176  RH  033%=      5-min Rain = 0
KHA3 172331Z 17017KT 37/18 A2988 RMK A01 T03650175  RH  033%=      5-min Rain = 0
KHA3 172332Z 17017KT 37/17 A2988 RMK A01 T03650174  RH  033%=      5-min Rain = 0
KHA3 172333Z 17014KT 37/17 A2988 RMK A01 T03650173  RH  032%=      5-min Rain = 0
KHA3 172334Z 17013KT 37/17 A2988 RMK A01 T03650174  RH  032%=      5-min Rain = 0
KHA3 172335Z 17012KT 36/18 A2988 RMK A01 T03640177  RH  033%=      5-min Rain = 0
KHA3 172336Z 16016KT 37/18 A2988 RMK A01 T03660176  RH  033%=      5-min Rain = 0
KHA3 172337Z 17014KT 37/17 A2988 RMK A01 T03660174  RH  032%=      5-min Rain = 0
KHA3 172338Z 16016KT 37/18 A2988 RMK A01 T03650175  RH  033%=      5-min Rain = 0
KHA3 172339Z 17016KT 37/17 A2988 RMK A01 T03650173  RH  032%=      5-min Rain = 0
KHA3 172340Z 17014KT 37/17 A2987 RMK A01 T03650172  RH  032%=      5-min Rain = 0
KHA3 172341Z 17012KT 37/17 A2987 RMK A01 T03650174  RH  032%=      5-min Rain = 0
KHA3 172342Z 18015KT 37/17 A2987 RMK A01 T03650173  RH  032%=      5-min Rain = 0
KHA3 172343Z 18015KT 37/17 A2987 RMK A01 T03650171  RH  032%=      5-min Rain = 0
KHA3 172344Z 18014KT 37/17 A2987 RMK A01 T03650171  RH  032%=      5-min Rain = 0
KHA3 172345Z 16011KT 37/18 A2987 RMK A01 T03650175  RH  033%=      5-min Rain = 0
KHA3 172346Z 17015KT 37/17 A2987 RMK A01 T03660174  RH  032%=      5-min Rain = 0
KHA3 172347Z 17015KT 37/17 A2987 RMK A01 T03660172  RH  032%=      5-min Rain = 0
KHA3 172348Z 16015KT 37/17 A2987 RMK A01 T03650172  RH  032%=      5-min Rain = 0
KHA3 172349Z 16015KT 37/17 A2987 RMK A01 T03650172  RH  032%=      5-min Rain = 0
KHA3 172350Z 16016KT 37/17 A2987 RMK A01 T03650171  RH  032%=      5-min Rain = 0
KHA3 172351Z 16017KT 36/17 A2987 RMK A01 T03640170  RH  032%=      5-min Rain = 0
KHA3 172352Z 15013KT 36/17 A2987 RMK A01 T03630173  RH  033%=      5-min Rain = 0
KHA3 172353Z 14012KT 36/17 A2987 RMK A01 T03630174  RH  033%=      5-min Rain = 0
KHA3 172354Z 15014KT 36/17 A2987 RMK A01 T03630174  RH  033%=      5-min Rain = 0
KHA3 172355Z 16018KT 36/17 A2987 RMK A01 T03630174  RH  033%=      5-min Rain = 0
KHA3 172356Z 16016KT 36/17 A2987 RMK A01 T03620174  RH  033%=      5-min Rain = 0
KHA3 172357Z 16017KT 36/18 A2987 RMK A01 T03620176  RH  033%=      5-min Rain = 0
KHA3 172358Z 15016KT 36/18 A2988 RMK A01 T03620175  RH  033%=      5-min Rain = 0
KHA3 172359Z 15014KT 36/18 A2988 RMK A01 T03610175  RH  033%=      5-min Rain = 0
KHA3 180000Z 15014KT 36/18 A2988 RMK A01 T03620176  RH  034%=      5-min Rain = 0
KHA3 180001Z 16015G20KT 36/18 A2988 RMK A01 T03620176  RH  034%=      5-min Rain = 0
KHA3 180002Z 15016KT 36/17 A2988 RMK A01 T03620174  RH  033%=      5-min Rain = 0
KHA3 180003Z 15015KT 36/17 A2988 RMK A01 T03610174  RH  033%=      5-min Rain = 0
KHA3 180004Z 15017KT 36/17 A2988 RMK A01 T03600174  RH  033%=      5-min Rain = 0
KHA3 180005Z 16018KT 36/17 A2988 RMK A01 T03600173  RH  033%=      5-min Rain = 0
KHA3 180006Z 16012KT 36/17 A2988 RMK A01 T03600174  RH  033%=      5-min Rain = 0
KHA3 180007Z 16012KT 36/18 A2988 RMK A01 T03600175  RH  034%=      5-min Rain = 0
KHA3 180008Z 17013KT 36/18 A2988 RMK A01 T03610176  RH  034%=      5-min Rain = 0
KHA3 180009Z 17014G19KT 36/18 A2988 RMK A01 T03610176  RH  034%=      5-min Rain = 0
KHA3 180010Z 17016KT 36/18 A2988 RMK A01 T03610175  RH  033%=      5-min Rain = 0
KHA3 180011Z 18016KT 36/17 A2988 RMK A01 T03610174  RH  033%=      5-min Rain = 0
KHA3 180012Z 18013KT 36/17 A2988 RMK A01 T03590173  RH  033%=      5-min Rain = 0
KHA3 180013Z 17012G17KT 36/18 A2988 RMK A01 T03590175  RH  034%=      5-min Rain = 0
KHA3 180014Z 16011KT 36/18 A2988 RMK A01 T03590176  RH  034%=      5-min Rain = 0
KHA3 180015Z 17013KT 36/18 A2988 RMK A01 T03590175  RH  034%=      5-min Rain = 0
KHA3 180016Z 16014KT 36/17 A2987 RMK A01 T03590174  RH  034%=      5-min Rain = 0
KHA3 180017Z 16015KT 36/17 A2987 RMK A01 T03590174  RH  034%=      5-min Rain = 0
KHA3 180018Z 16017KT 36/17 A2987 RMK A01 T03580172  RH  033%=      5-min Rain = 0
KHA3 180019Z 16014KT 36/17 A2987 RMK A01 T03580174  RH  034%=      5-min Rain = 0
KHA3 180020Z 16015KT 36/17 A2987 RMK A01 T03580174  RH  034%=      5-min Rain = 0
KHA3 180021Z 16016KT 36/17 A2987 RMK A01 T03570174  RH  034%=      5-min Rain = 0
KHA3 180022Z 16016KT 36/17 A2987 RMK A01 T03570173  RH  034%=      5-min Rain = 0
KHA3 180023Z 16014KT 36/17 A2987 RMK A01 T03570174  RH  034%=      5-min Rain = 0
KHA3 180024Z 15016KT 36/18 A2987 RMK A01 T03560175  RH  034%=      5-min Rain = 0
KHA3 180025Z 15017KT 36/18 A2987 RMK A01 T03560175  RH  034%=      5-min Rain = 0
KHA3 180026Z 16015KT 36/18 A2987 RMK A01 T03560175  RH  034%=      5-min Rain = 0
KHA3 180027Z 16014KT 36/18 A2987 RMK A01 T03560175  RH  034%=      5-min Rain = 0
KHA3 180028Z 16015KT 36/18 A2987 RMK A01 T03560177  RH  035%=      5-min Rain = 0
KHA3 180029Z 15014KT 36/18 A2987 RMK A01 T03550176  RH  035%=      5-min Rain = 0
KHA3 180030Z 15016G22KT 36/18 A2987 RMK A01 T03550177  RH  035%=      5-min Rain = 0
KHA3 180031Z 15017KT 35/18 A2987 RMK A01 T03540175  RH  035%=      5-min Rain = 0
KHA3 180032Z 15016KT 35/18 A2987 RMK A01 T03540175  RH  035%=      5-min Rain = 0
KHA3 180033Z 15017KT 35/18 A2987 RMK A01 T03540176  RH  035%=      5-min Rain = 0
KHA3 180034Z 16016KT 35/18 A2987 RMK A01 T03530176  RH  035%=      5-min Rain = 0
KHA3 180035Z 16014KT 35/18 A2987 RMK A01 T03530177  RH  035%=      5-min Rain = 0
KHA3 180036Z 16015KT 35/18 A2987 RMK A01 T03530179  RH  036%=      5-min Rain = 0
KHA3 180037Z 16016KT 35/18 A2987 RMK A01 T03530179  RH  036%=      5-min Rain = 0
KHA3 180038Z 16014KT 35/18 A2987 RMK A01 T03520180  RH  036%=      5-min Rain = 0
KHA3 180039Z 15011KT 35/18 A2987 RMK A01 T03520181  RH  036%=      5-min Rain = 0
KHA3 180040Z 16010KT 35/18 A2987 RMK A01 T03520182  RH  037%=      5-min Rain = 0
KHA3 180041Z 16010KT 35/18 A2987 RMK A01 T03520182  RH  037%=      5-min Rain = 0
KHA3 180042Z 16015KT 35/18 A2987 RMK A01 T03520181  RH  037%=      5-min Rain = 0
KHA3 180043Z 16013KT 35/18 A2987 RMK A01 T03510180  RH  036%=      5-min Rain = 0
KHA3 180044Z 16013KT 35/18 A2987 RMK A01 T03510182  RH  037%=      5-min Rain = 0
KHA3 180045Z 16014KT 35/18 A2987 RMK A01 T03510181  RH  037%=      5-min Rain = 0
KHA3 180046Z 16014KT 35/18 A2987 RMK A01 T03510180  RH  037%=      5-min Rain = 0
KHA3 180047Z 16013KT 35/18 A2987 RMK A01 T03510181  RH  037%=      5-min Rain = 0
KHA3 180048Z 16013KT 35/18 A2987 RMK A01 T03500181  RH  037%=      5-min Rain = 0
KHA3 180049Z 16012KT 35/18 A2987 RMK A01 T03500181  RH  037%=      5-min Rain = 0
KHA3 180050Z 16012KT 35/18 A2987 RMK A01 T03490181  RH  037%=      5-min Rain = 0
KHA3 180051Z 15011KT 35/18 A2987 RMK A01 T03490182  RH  037%=      5-min Rain = 0
KHA3 180052Z 15013KT 35/18 A2987 RMK A01 T03480181  RH  037%=      5-min Rain = 0
KHA3 180053Z 14014KT 35/18 A2987 RMK A01 T03480179  RH  037%=      5-min Rain = 0
KHA3 180054Z 15017KT 35/18 A2987 RMK A01 T03480177  RH  036%=      5-min Rain = 0
KHA3 180055Z 16013KT 35/18 A2987 RMK A01 T03480177  RH  036%=      5-min Rain = 0
KHA3 180056Z 15014KT 35/18 A2987 RMK A01 T03480178  RH  037%=      5-min Rain = 0
KHA3 180057Z 15013KT 35/18 A2987 RMK A01 T03480178  RH  037%=      5-min Rain = 0
KHA3 180058Z 15011KT 35/18 A2987 RMK A01 T03470179  RH  037%=      5-min Rain = 0
KHA3 180059Z 15009KT 35/18 A2987 RMK A01 T03470181  RH  037%=      5-min Rain = 0
KHA3 180100Z 16011G17KT 35/18 A2987 RMK A01 T03460182  RH  038%=      5-min Rain = 0
KHA3 180101Z 16015KT 35/18 A2987 RMK A01 T03460181  RH  038%=      5-min Rain = 0
KHA3 180102Z 16016KT 35/18 A2987 RMK A01 T03450180  RH  038%=      5-min Rain = 0
KHA3 180103Z 16014KT 35/18 A2987 RMK A01 T03450180  RH  038%=      5-min Rain = 0
KHA3 180104Z 16013KT 35/18 A2987 RMK A01 T03450181  RH  038%=      5-min Rain = 0
KHA3 180105Z 16012KT 34/18 A2987 RMK A01 T03440181  RH  038%=      5-min Rain = 0
KHA3 180106Z 15012KT 34/18 A2988 RMK A01 T03440181  RH  038%=      5-min Rain = 0
KHA3 180107Z 15013KT 34/18 A2988 RMK A01 T03430180  RH  038%=      5-min Rain = 0
KHA3 180108Z 16012KT 34/18 A2988 RMK A01 T03430180  RH  038%=      5-min Rain = 0
KHA3 180109Z 16012KT 34/18 A2988 RMK A01 T03430181  RH  038%=      5-min Rain = 0
KHA3 180110Z 16012KT 34/18 A2988 RMK A01 T03430181  RH  038%=      5-min Rain = 0
KHA3 180111Z 16014KT 34/18 A2988 RMK A01 T03420180  RH  038%=      5-min Rain = 0
KHA3 180112Z 16013KT 34/18 A2988 RMK A01 T03420180  RH  038%=      5-min Rain = 0
KHA3 180113Z 16010KT 34/18 A2988 RMK A01 T03420181  RH  039%=      5-min Rain = 0
KHA3 180114Z 16011KT 34/18 A2988 RMK A01 T03410181  RH  039%=      5-min Rain = 0
KHA3 180115Z 15013KT 34/18 A2988 RMK A01 T03410181  RH  039%=      5-min Rain = 0
KHA3 180116Z 15013KT 34/18 A2988 RMK A01 T03400181  RH  039%=      5-min Rain = 0
KHA3 180117Z 16012KT 34/18 A2988 RMK A01 T03400182  RH  039%=      5-min Rain = 0
KHA3 180118Z 15017KT 34/18 A2988 RMK A01 T03400182  RH  039%=      5-min Rain = 0
KHA3 180119Z 16014KT 34/18 A2988 RMK A01 T03400181  RH  039%=      5-min Rain = 0
KHA3 180120Z 16015G20KT 34/18 A2988 RMK A01 T03390181  RH  039%=      5-min Rain = 0
KHA3 180121Z 16014KT 34/18 A2988 RMK A01 T03390181  RH  039%=      5-min Rain = 0
KHA3 180122Z 16014KT 34/18 A2988 RMK A01 T03390181  RH  039%=      5-min Rain = 0
KHA3 180123Z 16012KT 34/18 A2988 RMK A01 T03390181  RH  039%=      5-min Rain = 0
KHA3 180124Z 16012KT 34/18 A2988 RMK A01 T03380182  RH  040%=      5-min Rain = 0
KHA3 180125Z 16015KT 34/18 A2988 RMK A01 T03370181  RH  040%=      5-min Rain = 0
KHA3 180126Z 15013KT 34/18 A2988 RMK A01 T03370180  RH  040%=      5-min Rain = 0
KHA3 180127Z 15014KT 34/18 A2988 RMK A01 T03370181  RH  040%=      5-min Rain = 0
KHA3 180128Z 16012KT 34/18 A2988 RMK A01 T03370181  RH  040%=      5-min Rain = 0
KHA3 180129Z 16011KT 34/18 A2988 RMK A01 T03360181  RH  040%=      5-min Rain = 0
KHA3 180130Z 16011KT 34/18 A2988 RMK A01 T03350181  RH  040%=      5-min Rain = 0
KHA3 180131Z 16012KT 34/18 A2988 RMK A01 T03350181  RH  040%=      5-min Rain = 0
KHA3 180132Z 16010KT 33/18 A2988 RMK A01 T03340181  RH  040%=      5-min Rain = 0
KHA3 180133Z 16010KT 33/18 A2988 RMK A01 T03330182  RH  041%=      5-min Rain = 0
KHA3 180134Z 16010KT 33/18 A2988 RMK A01 T03320182  RH  041%=      5-min Rain = 0
KHA3 180135Z 16011KT 33/18 A2988 RMK A01 T03310182  RH  041%=      5-min Rain = 0
KHA3 180136Z 16013KT 33/18 A2988 RMK A01 T03300181  RH  041%=      5-min Rain = 0
KHA3 180137Z 16011KT 33/18 A2988 RMK A01 T03300181  RH  041%=      5-min Rain = 0
KHA3 180138Z 16011KT 33/18 A2988 RMK A01 T03300181  RH  041%=      5-min Rain = 0
KHA3 180139Z 16011KT 33/18 A2988 RMK A01 T03300182  RH  041%=      5-min Rain = 0
KHA3 180140Z 16011KT 33/18 A2988 RMK A01 T03290181  RH  042%=      5-min Rain = 0
KHA3 180141Z 16010KT 33/18 A2988 RMK A01 T03290181  RH  042%=      5-min Rain = 0
KHA3 180142Z 15010KT 33/18 A2988 RMK A01 T03290181  RH  042%=      5-min Rain = 0
KHA3 180143Z 16010KT 33/18 A2988 RMK A01 T03280182  RH  042%=      5-min Rain = 0
KHA3 180144Z 16011KT 33/18 A2988 RMK A01 T03280181  RH  042%=      5-min Rain = 0
KHA3 180145Z 16010KT 33/18 A2989 RMK A01 T03270181  RH  042%=      5-min Rain = 0
KHA3 180146Z 15009KT 33/18 A2989 RMK A01 T03270181  RH  042%=      5-min Rain = 0
KHA3 180147Z 16011KT 33/18 A2989 RMK A01 T03250181  RH  042%=      5-min Rain = 0
KHA3 180148Z 16010KT 33/18 A2989 RMK A01 T03250181  RH  042%=      5-min Rain = 0
KHA3 180149Z 16009KT 33/18 A2989 RMK A01 T03250181  RH  042%=      5-min Rain = 0
KHA3 180150Z 15010KT 32/18 A2989 RMK A01 T03240180  RH  042%=      5-min Rain = 0
KHA3 180151Z 15009KT 32/18 A2989 RMK A01 T03240180  RH  042%=      5-min Rain = 0
KHA3 180152Z 15011KT 32/18 A2989 RMK A01 T03240180  RH  042%=      5-min Rain = 0
KHA3 180153Z 15011KT 32/18 A2989 RMK A01 T03240179  RH  042%=      5-min Rain = 0
KHA3 180154Z 16009KT 32/18 A2989 RMK A01 T03240180  RH  042%=      5-min Rain = 0
KHA3 180155Z 15009KT 32/18 A2989 RMK A01 T03230180  RH  043%=      5-min Rain = 0
KHA3 180156Z 16009KT 32/18 A2989 RMK A01 T03230180  RH  043%=      5-min Rain = 0
KHA3 180157Z 16010KT 32/18 A2989 RMK A01 T03210179  RH  043%=      5-min Rain = 0
KHA3 180158Z 16011KT 32/18 A2989 RMK A01 T03210178  RH  043%=      5-min Rain = 0
KHA3 180159Z 16012KT 32/18 A2989 RMK A01 T03220178  RH  042%=      5-min Rain = 0
KHA3 180200Z 16012KT 32/18 A2989 RMK A01 T03220177  RH  042%=      5-min Rain = 0
KHA3 180201Z 16011KT 32/18 A2989 RMK A01 T03230178  RH  042%=      5-min Rain = 0
KHA3 180202Z 16012KT 32/18 A2989 RMK A01 T03230178  RH  042%=      5-min Rain = 0
KHA3 180203Z 16011KT 32/18 A2989 RMK A01 T03230178  RH  042%=      5-min Rain = 0
KHA3 180204Z 16011KT 32/18 A2989 RMK A01 T03220178  RH  042%=      5-min Rain = 0
KHA3 180205Z 16010KT 32/18 A2989 RMK A01 T03220178  RH  042%=      5-min Rain = 0
KHA3 180206Z 16010KT 32/18 A2989 RMK A01 T03210178  RH  043%=      5-min Rain = 0
KHA3 180207Z 16011KT 32/18 A2989 RMK A01 T03200177  RH  043%=      5-min Rain = 0
KHA3 180208Z 16010KT 32/18 A2989 RMK A01 T03200177  RH  043%=      5-min Rain = 0
KHA3 180209Z 16010KT 32/18 A2989 RMK A01 T03200177  RH  043%=      5-min Rain = 0
KHA3 180210Z 16011KT 32/18 A2989 RMK A01 T03190177  RH  043%=      5-min Rain = 0
KHA3 180211Z 16012KT 32/18 A2989 RMK A01 T03190177  RH  043%=      5-min Rain = 0
KHA3 180212Z 16011KT 32/18 A2989 RMK A01 T03190176  RH  043%=      5-min Rain = 0
KHA3 180213Z 16012KT 32/18 A2989 RMK A01 T03190177  RH  043%=      5-min Rain = 0
KHA3 180214Z 16013KT 32/18 A2989 RMK A01 T03190177  RH  043%=      5-min Rain = 0
KHA3 180215Z 16011KT 32/18 A2989 RMK A01 T03190176  RH  043%=      5-min Rain = 0
KHA3 180216Z 16011KT 32/18 A2989 RMK A01 T03190176  RH  043%=      5-min Rain = 0
KHA3 180217Z 16011KT 32/18 A2989 RMK A01 T03190177  RH  043%=      5-min Rain = 0
KHA3 180218Z 16011KT 32/18 A299 RMK A01 T03190176  RH  043%=      5-min Rain = 0
KHA3 180219Z 16011KT 32/18 A299 RMK A01 T03180177  RH  043%=      5-min Rain = 0
KHA3 180220Z 16011KT 32/18 A299 RMK A01 T03180177  RH  043%=      5-min Rain = 0
KHA3 180221Z 16011KT 32/18 A299 RMK A01 T03180177  RH  043%=      5-min Rain = 0
KHA3 180222Z 16010KT 32/18 A299 RMK A01 T03170177  RH  043%=      5-min Rain = 0
KHA3 180223Z 16011KT 32/18 A299 RMK A01 T03170177  RH  043%=      5-min Rain = 0
KHA3 180224Z 16012KT 32/18 A299 RMK A01 T03160177  RH  043%=      5-min Rain = 0
KHA3 180225Z 16011KT 32/18 A299 RMK A01 T03160176  RH  043%=      5-min Rain = 0
KHA3 180226Z 16010KT 32/18 A299 RMK A01 T03160177  RH  043%=      5-min Rain = 0
KHA3 180227Z 17010KT 32/18 A299 RMK A01 T03160177  RH  044%=      5-min Rain = 0
KHA3 180228Z 17011KT 32/18 A299 RMK A01 T03150177  RH  044%=      5-min Rain = 0
KHA3 180229Z 16011KT 32/18 A299 RMK A01 T03150177  RH  044%=      5-min Rain = 0
KHA3 180230Z 16011KT 32/18 A299 RMK A01 T03150177  RH  044%=      5-min Rain = 0
KHA3 180231Z 16010KT 32/18 A299 RMK A01 T03150177  RH  044%=      5-min Rain = 0
KHA3 180232Z 16011KT 31/18 A299 RMK A01 T03140177  RH  044%=      5-min Rain = 0
KHA3 180233Z 16011KT 31/18 A299 RMK A01 T03140177  RH  044%=      5-min Rain = 0
KHA3 180234Z 16010KT 31/18 A299 RMK A01 T03140177  RH  044%=      5-min Rain = 0
KHA3 180235Z 16010KT 31/18 A299 RMK A01 T03130178  RH  044%=      5-min Rain = 0
KHA3 180236Z 16011KT 31/18 A299 RMK A01 T03130178  RH  044%=      5-min Rain = 0
KHA3 180237Z 16011KT 31/18 A299 RMK A01 T03120177  RH  044%=      5-min Rain = 0
KHA3 180238Z 16010KT 31/18 A299 RMK A01 T03120178  RH  045%=      5-min Rain = 0
KHA3 180239Z 17010KT 31/18 A299 RMK A01 T03120178  RH  045%=      5-min Rain = 0
KHA3 180240Z 16010KT 31/18 A299 RMK A01 T03110178  RH  045%=      5-min Rain = 0
KHA3 180241Z 16012KT 31/18 A299 RMK A01 T03100178  RH  045%=      5-min Rain = 0
KHA3 180242Z 16010KT 31/18 A299 RMK A01 T03110178  RH  045%=      5-min Rain = 0
KHA3 180243Z 16011KT 31/18 A299 RMK A01 T03100178  RH  045%=      5-min Rain = 0
KHA3 180244Z 16011KT 31/18 A299 RMK A01 T03100178  RH  045%=      5-min Rain = 0
KHA3 180245Z 16012KT 31/18 A299 RMK A01 T03110178  RH  045%=      5-min Rain = 0
KHA3 180246Z 16012KT 31/18 A299 RMK A01 T03100177  RH  045%=      5-min Rain = 0
KHA3 180247Z 16010KT 31/18 A299 RMK A01 T03110178  RH  045%=      5-min Rain = 0
KHA3 180248Z 16010KT 31/18 A299 RMK A01 T03110178  RH  045%=      5-min Rain = 0
KHA3 180249Z 17011KT 31/18 A2991 RMK A01 T03110179  RH  045%=      5-min Rain = 0
KHA3 180250Z 16010KT 31/18 A2991 RMK A01 T03100178  RH  045%=      5-min Rain = 0
KHA3 180251Z 16011KT 31/18 A2991 RMK A01 T03100178  RH  045%=      5-min Rain = 0
KHA3 180252Z 16010KT 31/18 A2991 RMK A01 T03100179  RH  046%=      5-min Rain = 0
KHA3 180253Z 16011KT 31/18 A2991 RMK A01 T03090179  RH  046%=      5-min Rain = 0
KHA3 180254Z 16010KT 31/18 A2991 RMK A01 T03080178  RH  046%=      5-min Rain = 0
KHA3 180255Z 16011KT 31/18 A2991 RMK A01 T03080179  RH  046%=      5-min Rain = 0
KHA3 180256Z 17011KT 31/18 A2991 RMK A01 T03080178  RH  046%=      5-min Rain = 0
KHA3 180257Z 17010KT 31/18 A2991 RMK A01 T03080179  RH  046%=      5-min Rain = 0
KHA3 180258Z 17010KT 31/18 A2991 RMK A01 T03070179  RH  046%=      5-min Rain = 0
KHA3 180259Z 16011KT 31/18 A2991 RMK A01 T03060179  RH  046%=      5-min Rain = 0
KHA3 180300Z 17010KT 31/18 A2991 RMK A01 T03060179  RH  047%=      5-min Rain = 0
KHA3 180301Z 17010KT 31/18 A2991 RMK A01 T03060179  RH  047%=      5-min Rain = 0
KHA3 180302Z 17009KT 31/18 A2991 RMK A01 T03050179  RH  047%=      5-min Rain = 0
KHA3 180303Z 16009KT 30/18 A2991 RMK A01 T03040179  RH  047%=      5-min Rain = 0
KHA3 180304Z 17010KT 30/18 A2991 RMK A01 T03030179  RH  047%=      5-min Rain = 0
KHA3 180305Z 17009KT 30/18 A2991 RMK A01 T03030179  RH  048%=      5-min Rain = 0
KHA3 180306Z 16009KT 30/18 A2991 RMK A01 T03030180  RH  048%=      5-min Rain = 0
KHA3 180307Z 16010KT 30/18 A2991 RMK A01 T03020179  RH  048%=      5-min Rain = 0
KHA3 180308Z 16010KT 30/18 A2991 RMK A01 T03020179  RH  048%=      5-min Rain = 0
KHA3 180309Z 16009KT 30/18 A2991 RMK A01 T03010179  RH  048%=      5-min Rain = 0
KHA3 180310Z 16010KT 30/18 A2991 RMK A01 T03010179  RH  048%=      5-min Rain = 0
KHA3 180311Z 16010KT 30/18 A2991 RMK A01 T03010179  RH  048%=      5-min Rain = 0
KHA3 180312Z 16011KT 30/18 A2991 RMK A01 T03010179  RH  048%=      5-min Rain = 0
KHA3 180313Z 16010KT 30/18 A2991 RMK A01 T03010179  RH  048%=      5-min Rain = 0
KHA3 180314Z 16011KT 30/18 A2991 RMK A01 T03010179  RH  048%=      5-min Rain = 0
KHA3 180315Z 16011KT 30/18 A2991 RMK A01 T03020179  RH  048%=      5-min Rain = 0
KHA3 180316Z 16010KT 30/18 A2991 RMK A01 T03010178  RH  048%=      5-min Rain = 0
KHA3 180317Z 16010KT 30/18 A2991 RMK A01 T03010179  RH  048%=      5-min Rain = 0
KHA3 180318Z 16010KT 30/18 A2991 RMK A01 T03010178  RH  048%=      5-min Rain = 0
KHA3 180319Z 17010KT 30/18 A2991 RMK A01 T03010178  RH  048%=      5-min Rain = 0
KHA3 180320Z 16010KT 30/18 A2991 RMK A01 T03010178  RH  048%=      5-min Rain = 0
KHA3 180321Z 16011KT 30/18 A2992 RMK A01 T03010179  RH  048%=      5-min Rain = 0
KHA3 180322Z 17010KT 30/18 A2992 RMK A01 T03000179  RH  048%=      5-min Rain = 0
KHA3 180323Z 16010KT 30/18 A2992 RMK A01 T03000179  RH  048%=      5-min Rain = 0
KHA3 180324Z 17010KT 30/18 A2992 RMK A01 T02990179  RH  048%=      5-min Rain = 0
KHA3 180325Z 16010KT 30/18 A2992 RMK A01 T02990179  RH  048%=      5-min Rain = 0
KHA3 180326Z 17010KT 30/18 A2992 RMK A01 T02990179  RH  049%=      5-min Rain = 0
KHA3 180327Z 17011KT 30/18 A2992 RMK A01 T02980179  RH  049%=      5-min Rain = 0
KHA3 180328Z 17011KT 30/18 A2992 RMK A01 T02980179  RH  049%=      5-min Rain = 0
KHA3 180329Z 16010KT 30/18 A2992 RMK A01 T02980178  RH  049%=      5-min Rain = 0
KHA3 180330Z 17010KT 30/18 A2992 RMK A01 T02980178  RH  049%=      5-min Rain = 0
KHA3 180331Z 17011KT 30/18 A2992 RMK A01 T02980178  RH  049%=      5-min Rain = 0
KHA3 180332Z 17011KT 30/18 A2992 RMK A01 T02970178  RH  049%=      5-min Rain = 0
KHA3 180333Z 17010KT 30/18 A2992 RMK A01 T02970178  RH  049%=      5-min Rain = 0
KHA3 180334Z 17011KT 30/18 A2992 RMK A01 T02970178  RH  049%=      5-min Rain = 0
KHA3 180335Z 17011KT 30/18 A2992 RMK A01 T02970177  RH  049%=      5-min Rain = 0
KHA3 180336Z 17010KT 30/18 A2992 RMK A01 T02980177  RH  048%=      5-min Rain = 0
KHA3 180337Z 17010KT 30/18 A2992 RMK A01 T02980178  RH  049%=      5-min Rain = 0
KHA3 180338Z 17010KT 30/18 A2992 RMK A01 T02970178  RH  049%=      5-min Rain = 0
KHA3 180339Z 17010KT 30/18 A2992 RMK A01 T02970177  RH  049%=      5-min Rain = 0
KHA3 180340Z 17011KT 30/18 A2992 RMK A01 T02970178  RH  049%=      5-min Rain = 0
KHA3 180341Z 17010KT 30/18 A2992 RMK A01 T02960178  RH  049%=      5-min Rain = 0
KHA3 180342Z 17010KT 30/18 A2992 RMK A01 T02960178  RH  049%=      5-min Rain = 0
KHA3 180343Z 16010KT 30/18 A2992 RMK A01 T02950177  RH  049%=      5-min Rain = 0
KHA3 180344Z 16010KT 30/18 A2992 RMK A01 T02950177  RH  049%=      5-min Rain = 0
KHA3 180345Z 16010KT 30/18 A2992 RMK A01 T02950178  RH  049%=      5-min Rain = 0
KHA3 180346Z 16009KT 29/18 A2992 RMK A01 T02940177  RH  049%=      5-min Rain = 0
KHA3 180347Z 16011KT 29/18 A2992 RMK A01 T02940178  RH  050%=      5-min Rain = 0
KHA3 180348Z 16010KT 29/18 A2992 RMK A01 T02930177  RH  050%=      5-min Rain = 0
KHA3 180349Z 16010KT 29/18 A2992 RMK A01 T02930177  RH  050%=      5-min Rain = 0
KHA3 180350Z 16010KT 29/18 A2992 RMK A01 T02940178  RH  050%=      5-min Rain = 0
KHA3 180351Z 16010KT 29/18 A2992 RMK A01 T02930178  RH  050%=      5-min Rain = 0
KHA3 180352Z 16010KT 29/18 A2992 RMK A01 T02930178  RH  050%=      5-min Rain = 0
KHA3 180353Z 16010KT 29/18 A2992 RMK A01 T02930178  RH  050%=      5-min Rain = 0
KHA3 180354Z 16011KT 29/18 A2992 RMK A01 T02930178  RH  050%=      5-min Rain = 0
KHA3 180355Z 16011KT 29/18 A2992 RMK A01 T02930177  RH  050%=      5-min Rain = 0
KHA3 180356Z 16010KT 29/18 A2992 RMK A01 T02930178  RH  050%=      5-min Rain = 0
KHA3 180357Z 16011KT 29/18 A2992 RMK A01 T02930177  RH  050%=      5-min Rain = 0
KHA3 180358Z 16010KT 29/18 A2992 RMK A01 T02940177  RH  050%=      5-min Rain = 0
KHA3 180359Z 16011KT 29/18 A2992 RMK A01 T02940177  RH  049%=      5-min Rain = 0
KHA3 180400Z 16010KT 30/18 A2992 RMK A01 T02950178  RH  049%=      5-min Rain = 0
KHA3 180401Z 16011KT 30/18 A2992 RMK A01 T02950178  RH  049%=      5-min Rain = 0
KHA3 180402Z 16010KT 29/18 A2992 RMK A01 T02940178  RH  049%=      5-min Rain = 0
KHA3 180403Z 16010KT 30/18 A2992 RMK A01 T02950178  RH  049%=      5-min Rain = 0
KHA3 180404Z 16011KT 30/18 A2992 RMK A01 T02950177  RH  049%=      5-min Rain = 0
KHA3 180405Z 16011KT 29/18 A2992 RMK A01 T02940177  RH  049%=      5-min Rain = 0
KHA3 180406Z 16011KT 30/18 A2992 RMK A01 T02950177  RH  049%=      5-min Rain = 0
KHA3 180407Z 16011KT 30/18 A2992 RMK A01 T02960177  RH  049%=      5-min Rain = 0
KHA3 180408Z 16011KT 30/18 A2992 RMK A01 T02960177  RH  049%=      5-min Rain = 0
KHA3 180409Z 16010KT 30/18 A2992 RMK A01 T02960177  RH  049%=      5-min Rain = 0
KHA3 180410Z 16012KT 30/18 A2992 RMK A01 T02960178  RH  049%=      5-min Rain = 0
KHA3 180411Z 16011KT 30/18 A2992 RMK A01 T02960178  RH  049%=      5-min Rain = 0
KHA3 180412Z 16010KT 30/18 A2992 RMK A01 T02960177  RH  049%=      5-min Rain = 0
KHA3 180413Z 16011KT 30/18 A2992 RMK A01 T02960178  RH  049%=      5-min Rain = 0
KHA3 180414Z 16010KT 30/18 A2992 RMK A01 T02950178  RH  049%=      5-min Rain = 0
KHA3 180415Z 16011KT 29/18 A2992 RMK A01 T02940178  RH  050%=      5-min Rain = 0
KHA3 180416Z 16011KT 29/18 A2992 RMK A01 T02940178  RH  050%=      5-min Rain = 0
KHA3 180417Z 16010KT 29/18 A2992 RMK A01 T02940178  RH  050%=      5-min Rain = 0
KHA3 180418Z 16011KT 29/18 A2992 RMK A01 T02940178  RH  050%=      5-min Rain = 0
KHA3 180419Z 16011KT 29/18 A2992 RMK A01 T02940178  RH  050%=      5-min Rain = 0
KHA3 180420Z 16010KT 29/18 A2992 RMK A01 T02930178  RH  050%=      5-min Rain = 0
KHA3 180421Z 16011KT 29/18 A2992 RMK A01 T02940178  RH  050%=      5-min Rain = 0
KHA3 180422Z 16011KT 29/18 A2992 RMK A01 T02940178  RH  050%=      5-min Rain = 0
KHA3 180423Z 16011KT 29/18 A2992 RMK A01 T02940178  RH  050%=      5-min Rain = 0
KHA3 180424Z 16009KT 29/18 A2992 RMK A01 T02940178  RH  050%=      5-min Rain = 0
KHA3 180425Z 16009KT 29/18 A2992 RMK A01 T02930179  RH  050%=      5-min Rain = 0
KHA3 180426Z 16009KT 29/18 A2992 RMK A01 T02920179  RH  050%=      5-min Rain = 0
KHA3 180427Z 16009KT 29/18 A2992 RMK A01 T02920179  RH  051%=      5-min Rain = 0
KHA3 180428Z 16009KT 29/18 A2992 RMK A01 T02910179  RH  051%=      5-min Rain = 0
KHA3 180429Z 16009KT 29/18 A2992 RMK A01 T02910178  RH  051%=      5-min Rain = 0
KHA3 180430Z 15009KT 29/18 A2992 RMK A01 T02910178  RH  051%=      5-min Rain = 0
KHA3 180431Z 16010KT 29/18 A2992 RMK A01 T02910179  RH  051%=      5-min Rain = 0
KHA3 180432Z 15010KT 29/18 A2992 RMK A01 T02920179  RH  051%=      5-min Rain = 0
KHA3 180433Z 16010KT 29/18 A2992 RMK A01 T02920179  RH  051%=      5-min Rain = 0
KHA3 180434Z 16009KT 29/18 A2992 RMK A01 T02920179  RH  051%=      5-min Rain = 0
KHA3 180435Z 16010KT 29/18 A2992 RMK A01 T02910179  RH  051%=      5-min Rain = 0
KHA3 180436Z 16010KT 29/18 A2992 RMK A01 T02910179  RH  051%=      5-min Rain = 0
KHA3 180437Z 16010KT 29/18 A2992 RMK A01 T02900179  RH  051%=      5-min Rain = 0
KHA3 180438Z 16011KT 29/18 A2992 RMK A01 T02900179  RH  051%=      5-min Rain = 0
KHA3 180439Z 16011KT 29/18 A2992 RMK A01 T02910179  RH  051%=      5-min Rain = 0
KHA3 180440Z 16012KT 29/18 A2992 RMK A01 T02910179  RH  051%=      5-min Rain = 0
KHA3 180441Z 15010KT 29/18 A2992 RMK A01 T02920180  RH  051%=      5-min Rain = 0
KHA3 180442Z 16011KT 29/18 A2992 RMK A01 T02910180  RH  051%=      5-min Rain = 0
KHA3 180443Z 16010KT 29/18 A2992 RMK A01 T02910180  RH  051%=      5-min Rain = 0
KHA3 180444Z 15009KT 29/18 A2992 RMK A01 T02910179  RH  051%=      5-min Rain = 0
KHA3 180445Z 15010KT 29/18 A2992 RMK A01 T02910180  RH  051%=      5-min Rain = 0
KHA3 180446Z 15010KT 29/18 A2992 RMK A01 T02900180  RH  052%=      5-min Rain = 0
KHA3 180447Z 15010KT 29/18 A2992 RMK A01 T02890180  RH  052%=      5-min Rain = 0
KHA3 180448Z 15010KT 29/18 A2992 RMK A01 T02880180  RH  052%=      5-min Rain = 0
KHA3 180449Z 15010KT 29/18 A2992 RMK A01 T02870180  RH  052%=      5-min Rain = 0
KHA3 180450Z 15010KT 29/18 A2992 RMK A01 T02870180  RH  052%=      5-min Rain = 0
KHA3 180451Z 15010KT 29/18 A2992 RMK A01 T02870180  RH  053%=      5-min Rain = 0
KHA3 180452Z 15010KT 29/18 A2992 RMK A01 T02860180  RH  053%=      5-min Rain = 0
KHA3 180453Z 15009KT 29/18 A2992 RMK A01 T02850181  RH  053%=      5-min Rain = 0
KHA3 180454Z 15011KT 29/18 A2992 RMK A01 T02850181  RH  053%=      5-min Rain = 0
KHA3 180455Z 15011KT 29/18 A2992 RMK A01 T02850181  RH  053%=      5-min Rain = 0
KHA3 180456Z 15011KT 29/18 A2992 RMK A01 T02850181  RH  053%=      5-min Rain = 0
KHA3 180457Z 15010KT 29/18 A2992 RMK A01 T02850181  RH  053%=      5-min Rain = 0
KHA3 180458Z 15011KT 29/18 A2992 RMK A01 T02850181  RH  053%=      5-min Rain = 0
KHA3 180459Z 15011KT 29/18 A2992 RMK A01 T02850181  RH  054%=      5-min Rain = 0

Page generated in 0.1053 seconds.